GFSFLT2_sfc_30mbdewp_000.txt.gz
Dewpoint
69 69 69 68 68 68 68 67 66 66 65 64 63 63 61 60 59 59 59 58 57 57 58 58 58 57 57 58 57 56 52 53
66 67 69 68 67 67 66 66 65 65 65 64 62 62 61 61 61 59 60 59 58 59 58 58 57 57 57 58 58 51 48 49
66 66 67 67 66 66 65 65 64 64 63 63 62 61 60 60 61 61 60 60 60 60 60 59 59 59 58 58 57 51 47 47
65 65 65 65 65 65 64 63 63 62 62 62 62 61 61 61 61 61 62 62 62 62 62 62 61 59 58 57 55 53 49 46
64 63 63 63 63 63 61 62 61 61 61 60 60 61 61 61 61 60 59 60 59 57 58 58 58 58 56 55 55 54 51 48
61 61 61 61 61 61 60 60 60 60 61 61 60 60 59 56 56 53 52 52 51 52 52 53 54 52 50 50 52 51 50 48
58 59 59 59 58 59 59 59 60 60 61 61 59 57 53 52 51 50 50 51 50 49 49 49 49 47 46 47 47 46 45 45
57 58 57 55 56 57 58 59 60 61 61 58 56 53 52 50 46 45 45 47 47 47 48 46 44 43 40 43 41 42 41 46
57 57 57 57 57 56 57 56 56 58 55 52 52 50 46 43 41 41 42 45 44 42 43 40 39 38 37 39 36 38 39 47
58 59 59 58 58 58 56 51 53 51 50 48 44 41 41 40 41 41 43 40 38 38 39 36 38 37 35 35 35 37 38 47
59 59 57 57 56 53 49 45 45 45 43 41 39 39 39 40 41 41 38 36 37 36 37 36 36 36 35 36 34 35 42 45
56 55 53 50 49 49 48 45 44 44 41 39 38 38 39 39 38 38 37 36 36 36 34 36 37 39 36 34 34 34 42 44
53 51 49 46 46 44 43 42 45 40 39 38 36 36 36 37 38 38 37 36 37 38 37 36 35 41 37 34 35 36 39 40
45 45 45 44 43 45 46 45 43 40 36 35 36 36 36 37 38 38 37 36 38 38 38 35 38 40 39 38 34 34 36 34
38 39 39 41 44 43 40 40 40 36 37 33 35 35 36 36 37 37 37 37 37 38 38 36 37 37 38 37 33 32 34 34
35 36 36 37 37 37 36 37 35 38 34 32 34 34 34 35 36 37 36 37 38 38 36 35 36 31 35 33 34 33 31 30
36 36 36 36 37 38 37 34 36 35 33 33 33 34 35 35 36 36 36 36 36 35 32 31 32 30 32 33 34 33 33 31
36 37 36 36 35 36 34 34 33 31 33 33 34 34 35 36 36 36 36 35 34 33 31 31 30 30 31 31 31 29 29 30
35 33 32 33 33 33 32 30 30 32 33 34 35 34 35 37 36 36 35 34 33 31 28 28 27 25 25 25 29 28 32 31
31 31 31 32 33 33 34 34 34 35 35 35 35 35 34 37 35 32 32 33 31 32 29 27 28 26 25 26 28 29 29 27

GFSFLT2_sfc_30mbdewp_003.txt.gz
Dewpoint
67 67 68 68 68 68 67 66 66 66 65 65 64 62 61 60 60 61 61 60 60 59 59 59 60 60 60 61 61 56 48 47
66 67 67 67 67 68 67 67 66 65 64 64 62 62 61 61 61 60 61 61 60 60 60 59 60 60 59 59 60 55 51 48
66 66 67 68 68 67 66 66 65 65 63 63 62 60 60 60 61 61 62 61 61 61 61 61 61 60 59 59 58 53 53 50
65 65 66 67 66 66 65 63 62 61 61 62 61 62 62 62 62 62 62 62 62 62 61 61 61 58 57 55 52 54 52 52
64 65 65 65 64 64 63 61 61 61 62 61 62 62 62 62 61 61 60 59 56 53 54 55 57 56 52 51 50 48 47 46
64 63 63 63 61 61 60 59 60 60 61 62 62 61 60 57 54 54 54 53 52 51 51 53 52 49 48 47 43 38 34 37
60 60 60 59 59 59 59 60 61 62 62 62 62 59 56 54 52 49 49 48 47 47 48 46 44 41 42 40 37 36 36 35
59 57 56 57 57 59 59 57 57 60 62 59 58 57 54 47 45 44 44 45 45 44 43 39 37 36 35 38 35 36 36 42
57 57 58 58 58 58 57 55 56 55 56 56 52 49 46 44 44 43 43 42 41 40 37 38 35 33 32 32 32 35 35 45
56 58 57 57 57 55 52 51 50 51 51 49 46 43 44 45 43 42 39 37 37 37 35 33 33 33 31 31 32 33 45 45
57 56 55 53 54 49 43 44 44 45 45 43 41 42 43 43 42 40 39 37 38 35 34 33 32 31 26 29 28 31 42 42
55 55 52 52 51 46 47 45 44 42 38 37 38 38 41 41 41 41 39 37 37 35 33 33 35 36 28 29 29 34 43 40
54 52 50 49 46 46 46 45 44 37 36 37 37 38 39 40 38 38 38 36 37 35 31 30 30 36 30 26 25 37 39 37
53 50 45 44 46 47 47 46 41 36 35 37 37 38 37 36 38 37 39 37 39 38 33 29 33 38 29 25 20 21 28 35
50 46 44 44 45 43 41 41 40 37 35 34 35 36 35 37 39 39 40 39 38 38 36 33 30 34 37 27 22 21 28 26
40 40 39 38 40 39 40 37 35 38 34 34 36 38 37 37 38 40 40 40 39 37 35 34 31 27 26 30 30 29 21 18
39 38 37 37 39 37 35 35 36 36 36 38 38 38 38 38 38 40 40 39 38 37 34 29 25 22 21 21 22 20 21 19
39 36 35 35 35 35 35 34 33 34 35 36 36 37 36 38 38 39 39 38 36 33 31 28 22 21 19 18 16 15 14 19
35 33 33 34 34 34 34 34 34 32 31 31 33 31 31 35 39 39 38 35 34 32 29 27 23 17 18 16 20 19 22 20
33 33 30 30 29 26 23 21 18 18 22 24 25 28 30 37 39 37 35 34 33 33 30 26 27 24 25 27 25 25 28 27

GFSFLT2_sfc_30mbdewp_006.txt.gz
Dewpoint
64 64 65 67 68 67 67 66 66 66 65 64 62 61 61 60 61 61 61 60 60 60 60 61 61 61 60 59 59 56 46 43
65 64 65 64 65 67 67 66 65 65 64 62 61 60 60 61 58 60 61 61 61 61 61 61 61 60 59 58 55 54 45 43
63 62 63 63 63 65 65 65 64 63 61 61 60 55 55 54 58 60 62 62 62 62 61 61 60 58 57 54 53 42 44 43
64 64 64 64 61 61 59 57 55 55 56 58 55 59 59 59 59 61 60 60 60 55 54 55 56 48 46 48 42 45 42 43
63 64 64 61 59 56 53 52 55 57 60 60 59 60 59 56 54 53 54 54 50 48 47 46 50 48 45 46 43 39 37 37
62 59 60 60 54 52 54 54 57 57 60 61 61 60 60 55 51 51 52 49 47 45 44 47 46 44 45 43 41 38 35 35
58 58 57 56 55 56 57 57 58 60 60 62 60 58 58 56 53 49 47 45 44 43 42 40 38 37 40 39 37 37 36 37
56 54 55 57 58 59 56 56 57 60 62 61 59 58 55 57 48 44 44 43 41 39 37 35 35 35 33 36 36 35 34 38
55 56 58 57 56 55 56 55 56 56 58 60 59 58 57 49 45 45 42 41 40 38 36 36 35 34 33 33 34 33 33 40
54 56 56 56 57 55 54 54 55 53 52 52 50 47 48 47 43 43 41 38 37 37 36 34 34 34 33 31 32 30 31 40
55 55 54 56 57 51 50 49 47 45 43 42 44 43 44 44 42 41 40 38 38 36 34 34 31 32 30 28 29 31 31 32
56 53 54 56 53 51 45 42 41 40 38 38 39 40 41 40 41 41 37 35 34 34 35 34 34 35 33 30 31 29 30 32
55 54 54 53 50 48 45 44 42 39 38 40 39 39 38 38 36 36 38 36 38 38 35 33 32 34 30 25 23 21 27 31
54 53 53 49 47 45 46 45 41 38 38 39 37 37 35 35 38 37 37 36 36 38 36 32 28 32 33 27 19 18 17 27
53 51 46 44 45 43 42 42 40 38 36 35 38 38 37 36 37 37 37 36 35 36 35 34 30 29 30 28 23 18 20 20
48 43 43 41 40 40 40 37 36 37 35 36 38 39 39 37 36 37 37 35 35 36 33 33 30 24 24 23 24 24 21 18
42 40 38 39 39 39 37 36 35 35 35 35 35 34 35 34 34 35 35 34 35 37 35 30 28 27 24 23 22 19 18 15
40 38 37 37 37 38 38 36 31 27 23 20 17 15 16 19 23 33 37 37 38 35 31 31 28 25 22 20 18 17 16 15
38 36 36 37 37 33 28 23 19 16 16 14 16 15 17 19 25 29 35 38 35 32 32 32 28 24 21 19 18 18 17 18
37 36 35 31 26 20 20 19 19 18 21 23 21 21 24 29 34 37 38 35 33 35 34 30 26 23 21 21 21 19 17 18

GFSFLT2_sfc_30mbdewp_009.txt.gz
Dewpoint
65 64 64 65 66 66 66 66 65 64 64 62 60 60 60 60 60 61 61 61 61 61 61 61 61 60 58 56 54 54 52 42
64 64 64 65 66 66 65 65 64 63 63 61 60 59 59 58 58 61 62 62 62 63 62 61 59 57 58 52 49 51 41 40
63 63 62 62 64 64 64 63 62 61 60 58 58 56 54 54 55 59 61 61 60 60 55 54 54 55 58 51 47 40 40 38
62 62 62 61 57 58 55 53 52 53 55 55 53 56 55 49 54 56 57 57 55 55 52 51 54 44 44 47 40 40 36 35
61 61 60 57 54 51 49 49 52 56 58 55 58 55 57 54 52 52 52 54 49 49 47 46 47 45 43 42 41 38 34 34
58 56 56 55 50 48 49 53 54 54 57 57 57 55 56 55 53 53 50 49 48 46 45 45 43 40 39 40 38 37 36 36
53 54 55 54 52 54 55 57 58 59 59 60 58 56 56 54 55 53 53 47 46 46 44 40 37 36 36 35 36 36 35 34
54 52 54 55 57 57 54 55 55 55 58 60 59 55 55 53 52 51 47 46 45 42 39 38 37 37 36 36 35 35 35 35
53 56 57 56 55 53 53 53 55 53 56 60 61 58 57 56 49 48 47 43 40 38 38 37 36 35 35 34 34 32 33 32
54 56 55 54 56 55 57 55 54 53 52 53 51 48 48 48 47 45 43 42 41 41 39 37 37 34 34 33 32 30 31 33
53 55 54 57 57 53 52 52 49 46 45 44 44 43 43 43 42 42 43 39 38 38 36 37 36 36 34 33 34 32 32 30
54 54 53 56 53 51 47 45 43 42 40 41 41 41 42 42 40 42 41 37 38 39 40 39 37 35 32 33 33 26 26 26
55 53 53 53 49 47 45 44 43 41 40 41 41 40 39 40 39 39 39 38 39 39 39 38 35 31 28 30 28 28 26 22
54 53 53 48 46 44 45 44 41 39 41 41 39 40 39 38 39 39 38 38 37 37 37 36 31 28 26 27 23 21 19 24
53 51 48 45 45 44 42 41 41 39 38 37 39 40 40 39 37 37 37 36 32 33 33 34 31 28 26 24 22 20 21 21
49 47 45 44 40 41 41 39 37 39 37 38 37 36 34 31 29 30 32 34 33 31 31 34 32 27 26 25 25 24 21 19
46 44 40 40 41 41 39 38 36 35 32 27 22 20 18 17 17 21 27 31 33 33 34 34 31 30 28 26 24 21 18 17
43 39 39 40 41 41 40 34 28 24 22 19 17 17 17 19 23 26 27 28 34 34 35 33 35 32 27 23 21 18 16 16
40 38 39 40 39 34 29 26 24 21 21 20 21 19 20 22 28 30 30 31 34 35 36 37 36 31 25 22 20 20 20 19
38 38 38 36 29 26 26 22 23 22 24 24 21 21 22 25 28 32 32 34 35 35 37 37 35 29 25 24 23 21 20 19

GFSFLT2_sfc_30mbdewp_012.txt.gz
Dewpoint
64 65 66 66 66 66 65 64 63 63 61 60 59 60 60 60 61 61 61 62 62 62 61 60 59 58 57 53 50 49 49 49
64 65 65 66 65 64 63 63 62 61 58 58 59 58 57 58 59 60 60 60 59 59 56 54 55 56 55 55 50 46 42 46
64 64 64 66 65 64 63 61 60 59 57 58 58 58 58 58 57 57 57 56 55 56 52 50 52 54 55 56 53 43 42 43
62 63 63 64 60 62 60 59 57 58 56 57 59 58 51 51 57 53 55 54 52 54 52 51 52 48 48 50 45 43 41 41
62 62 63 60 58 58 54 56 56 58 57 59 58 59 58 57 58 58 57 56 54 53 51 51 47 46 45 44 44 41 40 39
61 60 56 54 52 51 52 55 58 58 59 57 58 60 59 58 57 55 53 53 51 51 49 47 44 43 41 41 41 39 41 39
55 57 55 55 54 58 60 59 60 60 61 60 59 58 57 56 55 54 54 52 50 45 44 42 40 40 39 40 39 38 38 39
55 55 56 57 60 57 56 57 57 57 59 61 60 58 57 56 54 48 49 45 44 44 44 42 41 41 39 40 39 37 38 40
53 55 60 59 57 56 56 53 55 57 60 60 60 57 54 50 48 50 47 44 43 44 42 40 40 39 39 39 38 37 36 37
55 57 59 58 56 55 57 57 55 53 54 51 49 47 48 49 47 46 46 44 42 42 42 42 41 40 40 38 39 37 34 34
56 57 58 55 57 56 55 53 49 47 47 47 45 45 45 46 46 47 44 44 42 43 44 43 42 41 39 34 37 34 34 31
57 57 58 57 56 52 52 49 47 45 44 44 44 43 44 43 46 43 43 43 42 44 43 44 42 40 33 30 34 34 31 33
55 56 56 57 53 49 47 45 45 45 43 43 43 42 41 42 43 43 42 42 43 41 41 40 39 37 32 30 30 30 28 30
55 54 55 54 49 50 49 46 44 43 44 43 43 43 41 40 42 41 42 41 40 41 37 37 37 36 31 30 27 26 27 27
55 54 54 49 49 47 45 44 44 43 43 43 42 41 38 36 36 37 38 38 38 38 36 37 35 34 33 29 28 26 26 27
54 52 48 46 44 44 43 42 41 40 40 36 33 29 25 23 25 30 31 34 36 39 35 38 37 33 32 32 30 28 24 21
51 47 43 42 43 43 42 40 39 36 30 27 26 24 26 25 27 32 33 33 33 37 40 39 38 36 33 30 27 25 23 20
47 42 41 43 44 44 38 33 29 28 24 23 25 26 25 27 31 33 35 36 37 40 39 38 38 36 34 30 26 22 22 22
44 41 41 43 42 36 33 29 26 27 25 25 24 24 25 29 29 33 35 37 38 37 38 38 38 37 35 29 27 27 24 23
41 40 41 41 34 31 30 28 27 28 28 26 25 25 26 26 31 32 34 37 35 37 38 39 38 37 32 31 28 27 25 23

GFSFLT2_sfc_30mbdewp_015.txt.gz
Dewpoint
65 66 64 65 64 64 64 64 62 59 60 60 59 59 60 60 61 61 60 59 59 58 56 56 56 56 53 54 55 52 50 52
63 64 65 65 64 64 62 60 58 57 58 58 58 59 59 59 59 59 58 56 55 55 52 52 54 54 56 54 54 43 45 48
60 61 63 63 63 63 60 59 57 57 58 57 58 58 58 59 58 57 55 54 53 52 51 52 51 48 51 52 47 41 43 47
59 62 64 63 61 61 60 60 58 56 56 57 57 58 58 57 57 57 57 56 54 54 53 53 51 46 45 45 43 40 41 47
61 62 63 62 59 59 57 56 57 58 58 57 59 59 59 58 56 56 56 56 54 53 48 45 43 41 41 43 40 37 40 42
60 62 62 59 60 59 55 56 59 58 59 59 59 58 57 55 54 53 53 52 46 46 44 42 40 40 38 40 39 38 40 40
60 57 57 55 57 59 59 59 60 61 60 60 59 57 55 55 54 50 47 45 45 43 42 40 40 39 40 41 39 38 38 40
55 55 57 58 56 56 56 55 56 59 61 61 60 58 57 51 49 48 45 44 44 42 40 40 39 39 39 40 38 37 35 34
54 56 58 56 57 55 52 56 58 58 55 55 55 53 49 47 49 46 45 44 42 42 43 43 42 42 40 40 39 35 34 33
54 59 58 56 55 53 55 55 53 52 50 48 48 48 49 48 46 45 43 43 44 44 43 42 42 41 41 37 36 34 32 31
58 58 55 53 54 57 54 49 48 48 48 46 45 46 45 47 46 43 42 44 44 43 43 43 41 42 35 31 34 33 30 32
58 56 53 55 56 53 51 48 48 47 44 45 43 43 41 44 45 44 44 43 42 41 40 41 42 38 34 31 31 32 30 29
57 56 53 57 52 50 49 46 44 43 43 42 43 43 44 41 41 40 41 40 40 41 39 35 35 37 31 30 29 30 28 28
56 56 55 56 51 49 48 45 43 42 44 43 42 41 41 40 39 40 39 39 38 39 37 34 38 35 31 31 27 28 27 27
55 55 54 54 50 48 45 44 45 44 44 43 40 29 24 26 31 30 30 32 35 38 38 36 34 35 33 30 27 26 26 25
55 54 51 49 45 43 41 42 41 42 37 31 25 25 24 27 31 31 32 33 31 34 39 39 36 33 33 31 29 27 23 21
55 48 45 45 44 43 43 41 33 30 27 25 23 26 27 30 30 31 34 35 37 39 38 38 36 34 32 30 28 25 22 21
46 43 43 45 44 41 38 31 27 24 24 24 23 26 28 30 29 33 34 37 39 38 38 38 37 35 34 32 28 24 23 22
42 43 44 40 36 32 30 28 26 23 24 25 24 24 27 26 29 31 34 39 37 38 38 37 38 37 35 31 29 27 26 23
41 43 43 37 33 30 28 28 27 27 27 26 27 26 27 28 29 29 32 36 37 38 37 36 38 35 35 31 30 26 27 25

GFSFLT2_sfc_30mbdewp_018.txt.gz
Dewpoint
63 62 63 63 63 63 63 61 60 61 61 61 61 61 61 61 61 60 59 58 56 56 54 54 53 55 54 54 48 51 49 53
60 60 60 64 63 63 61 60 59 59 60 60 60 60 60 60 58 57 57 55 53 53 53 53 49 52 52 48 45 48 44 49
59 61 63 63 63 62 60 59 58 59 59 59 58 59 59 59 57 58 57 54 53 54 54 54 49 51 49 45 41 42 46 48
62 60 63 63 61 61 60 59 57 57 57 57 56 57 58 58 58 57 56 57 56 51 52 44 43 43 44 41 38 39 41 48
59 61 63 62 59 60 58 58 56 56 57 57 58 58 58 56 55 54 54 49 47 44 42 42 40 39 41 40 38 38 40 40
57 60 63 62 59 58 55 56 58 58 59 59 59 58 55 54 54 51 48 46 44 42 41 40 40 40 41 40 39 38 37 39
58 61 62 60 58 56 56 58 60 60 60 59 58 55 54 50 47 45 44 44 42 41 40 39 40 39 40 39 38 36 34 35
60 61 59 58 58 58 58 60 60 61 60 58 57 56 50 49 47 44 43 43 43 42 42 41 41 40 40 40 37 35 33 32
57 57 58 57 56 55 57 60 59 58 57 57 57 55 49 48 45 45 45 45 43 43 42 42 42 41 40 38 35 35 31 29
56 58 57 56 53 55 57 56 55 53 51 50 48 48 49 46 45 43 44 45 44 43 42 41 42 41 37 32 35 32 31 28
58 57 55 54 54 55 53 51 49 48 47 47 46 46 47 46 44 43 44 43 42 41 41 42 41 38 35 31 35 31 30 28
58 56 53 54 56 51 49 47 48 46 45 44 43 43 46 43 42 42 41 41 40 40 37 37 38 38 33 30 30 31 29 28
57 54 54 55 52 48 46 46 44 44 43 44 43 42 41 41 41 42 40 39 39 40 38 34 34 35 31 30 30 30 28 26
56 53 55 54 50 49 47 44 43 43 43 42 42 41 41 37 36 31 33 35 37 37 37 35 38 35 31 30 28 28 27 25
56 53 55 55 51 49 45 44 44 43 43 43 33 26 27 29 30 30 31 32 30 33 38 37 34 33 32 30 27 26 26 26
56 55 54 56 50 47 43 41 41 42 41 31 26 26 29 31 31 32 33 35 35 38 39 37 35 32 33 29 28 26 22 20
56 55 54 52 49 47 43 42 42 39 29 25 26 28 31 31 32 34 34 39 39 38 37 35 35 33 32 31 29 26 24 21
56 50 49 47 45 44 43 39 35 27 25 23 26 30 30 29 33 33 36 39 38 37 37 37 36 35 34 32 28 24 23 22
47 45 45 45 43 42 37 32 27 25 24 25 26 27 28 27 30 31 34 38 38 38 37 37 37 36 34 32 30 28 27 25
45 44 42 40 38 37 31 28 27 26 27 27 27 27 27 30 29 30 32 37 37 38 36 35 37 36 34 34 31 28 28 25

GFSFLT2_sfc_30mbdewp_021.txt.gz
Dewpoint
61 63 62 61 63 64 62 62 62 63 63 63 63 62 61 61 60 59 59 58 55 55 54 56 56 53 49 53 49 50 48 53
59 60 62 62 62 62 60 59 61 62 62 61 61 60 60 60 60 59 57 56 56 55 56 53 57 52 48 51 50 46 46 49
59 59 58 60 62 62 61 59 60 60 60 59 60 60 59 58 58 57 55 56 56 57 53 49 48 50 49 45 43 45 45 48
57 56 58 62 62 61 59 58 59 58 58 58 58 58 59 57 58 57 57 55 54 49 45 43 41 42 41 40 39 41 42 47
59 59 61 63 60 60 58 58 57 57 57 56 57 58 58 56 54 52 48 46 43 42 41 41 40 41 40 39 38 37 39 43
60 60 62 62 60 58 57 56 56 56 56 58 58 56 54 54 50 47 45 44 42 42 41 40 40 41 39 38 36 34 34 36
58 59 63 61 59 57 56 56 58 59 58 59 57 54 52 47 45 44 44 43 42 40 40 40 40 40 40 37 35 33 33 35
57 59 62 60 58 55 56 59 60 60 59 58 56 53 48 46 44 43 43 43 43 42 42 41 41 40 38 36 35 31 29 30
59 60 60 59 57 57 58 60 60 59 58 57 55 51 49 46 45 45 45 43 43 43 42 42 41 40 35 35 33 29 28 28
58 59 58 57 56 57 59 58 57 57 56 55 53 49 47 45 43 44 45 44 43 42 42 41 41 37 32 34 32 31 27 27
57 57 57 55 55 57 56 56 54 52 50 48 49 48 47 43 43 44 43 42 41 40 41 41 39 36 32 34 31 29 27 26
57 56 55 54 55 53 50 49 48 47 46 46 46 47 45 44 43 42 41 40 39 39 35 36 38 37 31 30 30 29 27 26
57 55 54 55 51 49 46 45 45 45 44 43 45 44 42 41 42 40 39 38 40 38 37 34 35 34 31 31 30 29 27 25
56 54 54 54 50 47 46 45 44 43 44 43 42 42 41 40 35 32 33 32 33 36 37 35 37 34 31 30 28 29 28 25
55 54 54 54 50 47 45 44 43 43 42 42 38 34 31 30 30 31 32 31 31 33 37 36 34 32 32 31 28 26 26 26
56 54 55 54 50 46 44 42 41 42 42 33 27 31 31 32 32 34 35 35 35 38 38 37 35 32 31 30 28 27 25 23
57 54 54 55 50 47 44 44 43 41 33 26 28 32 32 32 34 34 37 38 38 36 35 35 34 33 32 31 29 27 24 22
57 55 54 55 51 48 45 45 42 36 27 25 28 31 30 33 34 35 39 38 37 37 36 35 35 34 34 32 29 26 23 23
56 55 55 54 52 48 45 44 40 33 26 27 29 28 27 30 30 31 37 39 38 38 37 36 36 34 33 32 31 29 27 25
56 52 50 48 48 46 42 38 34 28 27 28 28 28 28 30 31 31 38 37 37 38 37 35 36 36 35 34 32 30 28 26

GFSFLT2_sfc_30mbdewp_024.txt.gz
Dewpoint
61 62 62 63 64 64 63 63 64 64 64 64 63 62 61 61 60 60 59 57 57 59 60 56 52 56 55 54 53 51 51 54
60 60 60 60 62 62 62 62 63 63 63 62 61 61 61 60 60 59 57 57 57 55 59 54 52 53 54 51 48 47 48 51
58 59 59 58 62 60 60 61 62 61 60 60 60 60 59 56 58 57 56 57 56 53 53 54 52 51 49 46 44 45 46 48
57 57 57 55 61 61 58 59 59 59 59 58 58 58 57 58 58 58 58 57 53 50 47 46 42 40 41 40 38 40 41 47
58 57 57 56 61 60 57 57 57 57 57 57 58 58 58 54 53 48 46 44 42 41 41 42 40 40 38 36 35 35 37 39
56 57 60 62 60 58 57 55 56 56 56 57 57 56 53 50 48 45 43 43 41 41 41 41 40 40 37 34 33 33 34 35
57 60 61 62 59 57 56 54 55 55 56 59 57 54 51 46 45 44 43 42 40 40 41 41 40 39 36 34 31 30 31 34
58 59 61 61 58 56 55 55 58 58 58 58 55 51 46 44 43 43 42 42 42 42 41 41 40 38 35 32 29 28 27 29
57 58 61 60 58 55 55 59 60 59 58 56 53 49 46 44 44 43 43 43 43 42 42 42 40 35 35 32 29 28 27 28
58 59 60 59 57 55 57 59 59 58 57 55 51 49 46 45 44 44 44 43 42 42 41 41 38 34 33 32 29 27 26 28
58 59 58 58 56 57 58 58 57 56 54 53 50 47 45 43 44 44 43 41 41 41 41 40 36 35 33 31 29 27 26 25
57 58 57 56 56 55 54 53 52 51 50 49 49 47 44 44 44 43 42 40 39 36 35 37 38 35 31 30 29 28 26 24
57 56 55 55 53 53 52 51 48 47 46 46 47 45 44 43 42 40 39 38 39 37 36 34 35 34 32 30 29 29 25 25
56 56 55 54 53 49 48 47 45 44 44 44 45 43 42 42 38 37 37 35 34 37 36 36 35 33 32 31 29 29 28 24
56 55 54 53 51 46 45 44 44 43 42 42 41 39 36 32 31 31 31 31 31 34 36 35 33 31 32 31 29 27 27 27
56 55 54 54 49 46 44 43 42 42 42 37 32 32 31 32 33 33 34 35 37 37 38 37 35 32 31 30 29 28 27 25
56 55 54 54 49 46 45 43 43 42 38 30 31 32 32 34 34 36 37 37 36 36 35 34 34 33 32 31 29 28 25 24
56 55 54 54 51 48 45 45 42 40 34 29 31 31 33 34 35 37 38 37 37 36 35 33 33 33 33 32 29 27 25 23
56 55 54 55 53 50 46 46 43 40 34 32 31 30 32 32 34 36 37 38 38 37 36 35 35 33 33 32 31 29 27 26
55 56 55 55 55 52 48 47 44 41 36 32 31 29 30 31 31 33 37 39 38 38 37 36 36 36 34 34 32 31 30 27

GFSFLT2_sfc_30mbdewp_027.txt.gz
Dewpoint
62 62 61 60 61 64 65 65 65 65 65 64 64 63 62 61 60 60 59 60 60 57 56 60 59 57 54 53 53 53 50 50
59 58 59 60 62 63 64 65 65 65 64 63 61 61 61 60 59 58 58 59 61 57 55 57 56 54 53 51 49 49 47 45
57 57 59 60 61 62 63 64 64 63 62 60 60 57 56 55 57 57 59 57 58 57 55 53 51 51 49 46 43 44 45 45
56 57 56 57 59 59 60 61 60 59 58 58 57 58 57 56 58 60 57 55 53 52 49 45 41 40 38 38 39 42 44 46
55 55 55 54 55 54 58 58 59 59 59 58 58 58 57 57 53 51 48 46 42 44 42 41 42 39 38 37 37 36 36 37
55 56 56 56 56 60 57 57 57 57 56 58 59 56 54 50 46 46 46 44 45 44 44 45 42 40 39 38 38 35 35 37
55 56 55 58 58 58 56 55 54 55 56 59 58 54 51 47 47 45 44 44 43 43 43 42 41 39 37 35 34 35 37 38
55 57 59 60 60 57 55 55 56 57 58 59 57 53 49 47 46 44 44 43 44 43 42 41 39 38 35 33 32 31 34 40
56 58 60 62 60 56 56 56 57 58 59 58 55 51 49 47 45 45 45 45 45 44 44 42 38 36 34 32 31 31 32 37
56 57 59 62 59 57 56 57 60 60 58 56 53 49 48 47 46 46 45 45 44 44 43 40 39 36 34 31 30 29 32 32
57 57 58 61 59 56 57 60 60 59 58 55 51 48 48 47 46 46 46 44 44 42 42 41 39 36 33 31 30 28 29 27
57 58 59 60 58 57 58 58 57 58 57 53 51 48 47 47 46 46 43 42 41 39 39 40 39 35 30 30 30 28 27 27
57 57 59 58 56 55 56 56 55 55 54 53 51 47 46 46 44 44 42 41 40 40 38 38 36 37 33 31 30 30 28 25
58 57 58 58 56 55 56 55 52 52 49 50 49 47 45 45 43 42 41 40 40 40 39 37 35 37 33 33 30 30 29 26
58 57 57 57 56 52 50 51 48 46 45 46 46 45 44 42 41 39 37 34 34 38 39 37 33 34 36 30 28 25 30 30
58 57 56 56 54 52 51 53 50 47 45 44 43 42 39 35 34 35 35 35 36 38 39 38 36 33 33 31 33 32 25 23
58 57 56 56 53 52 52 51 50 47 43 40 38 37 35 33 36 37 37 37 39 40 39 38 38 36 33 33 33 30 30 25
58 57 56 55 53 51 50 49 47 44 40 38 36 34 35 35 36 37 38 38 40 40 40 37 35 34 32 32 27 25 24 24
57 57 56 55 54 52 51 49 46 45 41 39 37 36 36 36 38 38 38 39 40 39 38 36 36 33 33 31 31 29 29 28
56 56 56 55 54 53 50 49 47 47 44 40 37 37 37 37 37 37 39 41 40 39 37 37 38 36 35 34 33 33 32 30

GFSFLT2_sfc_30mbdewp_030.txt.gz
Dewpoint
64 61 60 62 64 65 65 65 65 65 65 65 64 63 62 61 61 61 61 59 59 61 61 58 56 55 54 53 52 48 42 43
61 60 58 57 62 65 65 65 65 65 64 62 62 60 60 60 59 60 62 59 59 60 59 57 55 54 52 49 47 44 40 39
58 58 59 59 59 61 64 65 65 63 61 59 55 50 49 52 58 60 61 59 58 57 55 53 51 50 47 42 40 39 39 38
56 57 56 57 58 58 61 62 58 58 57 54 53 54 51 51 58 59 58 56 54 52 46 43 42 39 38 38 38 39 37 37
56 57 56 55 55 58 58 56 58 57 56 53 54 55 53 54 55 52 49 48 42 41 42 41 42 40 40 39 38 35 33 34
54 53 53 50 52 53 51 52 53 55 56 55 55 52 53 53 51 50 47 46 46 44 45 45 43 41 41 40 39 34 32 35
52 51 49 51 49 46 49 53 52 50 52 52 51 51 53 51 50 47 46 45 45 45 44 42 42 41 40 38 36 36 35 34
53 52 50 49 49 51 49 50 49 51 54 56 56 52 53 50 48 46 45 45 45 43 42 41 40 39 39 37 35 34 34 35
52 53 54 51 54 56 49 51 51 53 56 59 58 54 52 50 47 47 46 46 45 45 43 42 39 37 36 34 33 33 32 35
54 55 55 55 57 55 50 52 52 55 58 59 57 54 52 50 49 48 46 45 43 43 42 40 38 34 33 30 31 30 32 32
53 55 56 58 60 56 52 53 56 58 59 58 57 53 51 50 48 48 47 44 44 43 42 38 35 32 31 30 31 29 31 27
54 56 57 59 58 54 50 54 57 60 59 57 55 52 50 50 49 49 45 43 43 42 38 35 33 31 25 29 31 30 30 30
54 54 56 58 56 52 50 54 57 59 59 57 55 52 50 50 48 47 44 42 41 41 36 35 33 33 32 33 32 33 32 29
55 55 56 57 54 51 51 53 56 58 58 57 55 52 50 49 47 45 43 43 41 38 35 31 31 34 35 34 34 33 31 31
53 54 55 56 54 51 55 56 56 57 56 56 55 52 50 48 47 44 44 41 37 36 35 32 33 35 37 35 32 27 28 29
53 53 54 56 56 53 54 53 53 55 56 55 52 51 49 46 45 44 42 35 32 32 33 36 36 36 35 34 33 28 21 21
55 55 55 55 56 55 54 54 54 54 54 51 50 48 47 44 42 40 37 33 33 32 37 39 39 35 34 34 31 28 27 24
55 56 55 55 56 57 55 54 55 54 51 48 46 44 43 41 39 38 36 33 36 40 42 41 38 35 33 29 25 26 26 25
55 56 55 55 56 57 57 56 56 54 51 48 45 43 41 41 39 38 38 38 41 41 42 41 36 35 31 28 30 28 25 23
56 55 55 55 56 56 56 56 55 53 51 48 46 43 42 41 40 41 37 41 41 42 43 38 37 34 34 34 29 29 28 27

GFSFLT2_sfc_30mbdewp_036.txt.gz
Dewpoint
65 65 65 66 66 66 66 65 66 66 66 65 64 64 63 64 64 63 63 62 61 60 58 57 54 48 45 44 44 46 47 49
64 64 64 65 65 65 65 66 65 64 64 63 63 62 62 62 63 62 62 61 59 58 56 54 49 44 42 42 43 44 45 49
62 63 63 63 62 64 64 64 63 62 60 58 56 56 56 57 61 62 61 60 58 56 52 48 45 40 38 41 43 39 45 51
60 59 57 60 61 61 62 61 58 56 56 55 56 57 57 59 60 60 60 58 56 51 49 48 44 40 42 43 38 39 44 48
56 55 55 55 54 56 57 58 57 56 57 56 58 58 58 59 57 56 55 52 47 46 49 48 48 46 44 42 40 36 43 45
54 54 54 53 52 51 52 55 58 57 56 58 58 58 58 56 55 54 50 48 43 45 50 47 45 44 43 41 38 38 43 46
55 54 54 54 54 53 53 57 57 55 56 57 58 55 57 56 55 53 51 51 50 51 48 46 44 43 41 38 37 37 36 47
54 55 55 55 56 56 57 56 57 54 55 56 56 57 56 56 55 54 53 51 51 50 48 44 45 42 39 36 36 36 35 44
53 53 54 54 54 55 56 54 46 49 53 54 55 52 54 56 53 53 53 51 51 48 45 44 41 39 38 36 36 34 35 36
51 52 52 52 50 48 51 50 49 50 52 56 55 55 56 57 55 53 51 51 49 46 45 43 41 39 37 36 35 35 35 34
49 50 49 49 47 46 48 50 54 54 52 58 58 58 56 56 55 53 52 50 50 47 46 44 40 37 37 36 36 37 36 34
45 46 48 49 49 44 49 51 53 53 54 59 59 58 57 56 56 54 51 51 49 46 45 41 41 38 34 34 38 38 37 36
49 50 51 52 52 52 54 49 51 52 56 58 59 59 57 56 56 54 52 51 49 48 45 39 37 37 36 37 38 39 38 37
54 55 54 53 55 56 54 50 49 51 58 59 59 60 56 56 56 54 53 52 50 48 44 41 40 39 40 41 40 40 39 39
53 54 55 55 56 55 54 50 49 49 58 59 59 58 57 55 55 55 54 53 50 48 45 42 39 40 41 40 39 38 37 39
52 51 51 53 53 51 51 47 45 49 56 58 58 58 58 56 55 55 54 51 50 49 46 42 40 40 42 42 40 40 36 31
53 52 52 53 54 54 52 48 47 49 54 55 57 58 58 57 56 54 53 51 48 47 44 41 41 43 42 43 44 45 39 34
54 52 52 52 53 53 54 51 51 52 54 55 57 58 58 57 54 54 50 48 48 48 48 43 45 44 45 44 45 43 35 34
53 53 52 52 53 55 54 55 53 53 54 56 57 57 55 54 49 48 49 50 50 49 46 45 46 44 46 47 47 40 34 34
51 52 52 51 53 54 56 55 56 56 56 58 57 56 53 51 50 49 50 49 47 46 45 45 45 45 46 46 44 39 35 33

GFSFLT2_sfc_30mbdewp_039.txt.gz
Dewpoint
64 67 66 64 63 65 66 66 66 66 66 65 65 66 66 64 64 64 63 61 60 57 53 48 46 45 45 44 51 52 51 52
64 65 65 65 65 66 66 66 65 64 64 63 64 65 65 64 63 63 61 60 58 55 50 45 42 41 41 42 50 51 51 52
64 63 63 62 62 64 65 64 63 62 61 59 58 59 60 61 62 61 60 57 55 52 49 45 44 42 41 45 47 50 53 54
61 61 61 61 62 63 62 60 58 57 55 56 57 59 58 61 61 60 58 56 53 52 49 47 43 42 43 41 44 48 52 53
58 59 58 58 59 60 60 57 56 56 57 57 59 59 59 59 59 58 57 53 51 51 49 44 47 44 41 38 41 44 47 51
55 55 56 56 55 56 58 58 57 58 58 58 57 57 56 55 54 53 49 47 43 45 47 48 44 42 40 37 39 44 46 50
54 53 53 53 54 55 56 56 56 57 57 58 58 56 55 55 54 49 48 48 44 49 46 45 43 42 40 37 36 42 45 49
55 54 53 53 53 54 55 54 54 55 57 56 57 57 56 55 56 51 50 50 51 49 46 45 43 40 36 36 36 37 46 48
54 54 54 53 53 54 56 54 53 53 50 56 55 57 57 57 57 54 53 51 50 50 48 46 43 40 35 36 34 35 39 45
53 53 54 54 54 56 56 54 50 47 44 54 55 54 55 55 53 53 53 52 49 45 45 42 39 37 36 36 37 35 34 41
50 53 53 53 53 55 54 51 46 45 45 53 55 56 55 56 54 55 53 50 48 46 45 43 41 39 37 37 36 36 35 35
51 52 51 51 51 51 51 49 49 49 53 56 56 56 57 56 55 55 52 50 49 48 45 45 40 37 36 35 35 36 37 35
51 50 49 49 46 47 47 48 51 52 53 57 58 57 58 57 56 55 51 50 49 47 46 40 38 39 36 36 37 38 37 37
47 47 47 49 46 45 45 51 51 51 52 57 58 59 59 57 56 53 51 51 51 48 44 40 38 37 35 41 39 39 39 38
44 45 50 48 49 47 51 55 50 50 53 55 58 57 54 57 56 54 52 52 51 49 44 40 38 41 40 40 38 38 38 39
50 50 53 51 51 52 54 53 51 48 50 57 58 58 56 57 57 55 54 53 52 49 46 43 41 38 42 42 42 40 37 35
53 53 54 52 52 54 54 52 51 49 52 56 57 58 58 58 57 56 54 53 51 49 46 44 45 45 44 42 44 45 42 39
52 53 54 54 54 54 54 53 49 47 49 57 57 58 58 58 57 56 54 49 49 48 47 46 48 47 45 45 44 44 43 41
52 51 51 52 52 53 53 53 51 48 49 54 57 57 58 58 56 54 51 49 48 49 49 47 46 46 45 46 48 47 46 42
52 52 52 52 52 53 53 54 53 51 53 55 57 57 58 57 53 51 50 51 50 49 48 46 46 45 45 47 47 47 46 37

GFSFLT2_sfc_30mbdewp_042.txt.gz
Dewpoint
64 63 62 65 62 66 66 66 67 67 67 67 67 65 65 64 63 62 60 57 53 49 48 48 50 52 56 55 55 54 52 52
63 64 63 59 60 66 66 66 66 66 66 66 65 65 65 64 62 61 58 55 51 49 47 49 48 54 56 55 54 53 52 53
62 62 62 62 62 65 65 65 64 64 65 64 64 63 63 61 61 60 57 53 51 50 49 45 44 51 54 54 53 53 53 53
61 59 61 61 63 63 63 62 60 59 59 59 60 60 60 60 59 56 53 54 53 49 47 46 45 42 47 50 51 53 54 54
60 59 59 58 61 61 60 58 56 56 56 58 58 60 60 60 58 57 56 54 51 47 44 46 44 41 42 45 48 49 52 54
59 58 58 58 59 59 58 56 57 57 58 58 57 57 57 56 55 54 51 49 46 45 47 45 43 40 41 43 45 47 49 51
56 57 57 57 57 57 58 58 58 58 57 57 55 54 54 53 52 50 47 46 44 48 46 44 43 39 38 41 43 43 45 48
54 54 55 56 56 56 56 56 57 58 58 57 55 53 53 52 51 48 47 47 45 49 45 44 40 36 37 38 42 44 45 48
53 54 54 55 55 55 55 55 55 55 56 57 55 55 54 54 54 50 49 49 50 49 47 45 41 38 35 35 38 45 45 47
54 54 54 53 53 53 53 54 51 50 50 55 56 56 56 56 55 54 53 51 51 49 47 45 42 38 35 36 35 38 43 46
53 53 53 52 53 52 53 52 48 47 47 51 55 55 56 56 55 55 54 52 49 48 45 43 40 38 36 36 36 35 36 44
52 52 52 52 53 53 54 51 46 46 47 48 52 55 55 56 54 54 53 50 47 46 44 45 42 39 36 36 36 37 36 38
51 51 52 52 51 52 51 49 47 47 47 49 55 54 57 56 55 55 53 50 48 47 45 43 41 40 36 36 37 38 38 37
50 51 51 51 51 51 49 49 48 49 49 51 55 58 57 57 55 55 53 50 49 48 45 41 38 39 35 38 35 39 39 38
50 50 50 49 49 47 47 48 50 49 50 51 55 58 58 58 57 55 53 51 50 48 45 42 39 39 40 37 39 38 38 39
49 50 49 49 48 46 45 46 46 48 50 51 54 57 58 57 57 56 53 52 51 50 46 42 40 39 41 43 42 41 37 36
46 48 47 47 48 46 45 45 46 52 50 50 54 56 57 56 56 56 54 53 52 51 47 43 43 43 45 43 43 43 40 40
45 44 44 49 48 48 48 48 51 53 51 50 52 55 57 57 56 57 55 55 54 52 48 45 46 46 45 44 44 43 43 42
46 47 47 50 51 50 50 52 54 52 51 51 52 55 56 57 57 57 56 54 53 52 49 48 47 46 45 45 46 46 46 44
48 49 50 50 52 51 51 52 53 54 52 50 55 56 57 58 58 57 56 53 51 51 49 48 47 47 46 46 47 47 47 44

GFSFLT2_sfc_30mbdewp_045.txt.gz
Dewpoint
64 63 64 62 59 60 62 66 65 66 65 65 65 64 63 62 60 57 56 55 54 54 55 59 58 58 57 56 55 54 53 53
63 63 64 62 63 61 62 65 66 66 66 66 65 64 62 61 59 57 55 54 55 54 55 58 59 57 56 56 55 54 53 53
62 63 63 59 58 59 61 65 67 67 66 65 64 63 61 58 58 55 53 51 51 52 52 58 58 57 56 55 53 53 53 54
60 60 60 58 57 60 59 64 63 64 64 62 62 60 59 57 55 54 55 53 50 51 49 50 51 54 55 54 53 53 54 54
59 59 59 59 59 60 59 59 60 61 61 60 59 59 59 58 57 55 54 50 46 44 46 42 44 48 49 51 52 53 54 55
59 60 59 58 58 58 59 59 59 59 59 58 58 58 57 56 53 53 50 47 44 45 45 42 40 45 47 49 50 51 52 54
58 58 57 59 58 59 58 57 57 58 58 57 57 56 55 54 52 49 48 45 44 47 44 42 39 42 44 46 47 47 49 51
58 57 56 58 58 57 57 58 57 57 56 55 55 54 53 52 50 47 46 43 48 46 44 42 39 39 41 43 42 43 44 46
56 57 57 58 57 57 57 57 57 56 56 55 53 53 53 51 50 47 46 44 49 47 45 42 37 37 37 42 43 43 44 45
55 56 56 56 56 56 55 55 55 55 56 55 54 53 53 52 50 48 48 48 48 48 46 43 39 36 36 38 42 44 44 46
54 55 56 55 54 54 54 52 51 52 54 56 55 54 54 53 53 51 51 50 51 49 47 44 41 37 35 36 37 41 42 45
54 54 54 54 54 54 54 53 49 48 50 54 55 55 55 55 55 55 53 52 50 49 46 44 42 39 36 36 37 37 38 44
53 53 54 54 53 52 52 51 49 47 47 49 51 54 56 56 55 55 54 52 50 49 46 43 41 40 37 36 36 37 37 37
51 52 52 52 52 50 51 49 49 47 48 49 51 53 54 56 55 55 54 51 49 47 45 42 41 40 36 36 34 36 39 38
51 51 51 51 51 51 49 49 49 47 47 48 50 54 55 56 56 55 54 52 50 48 46 42 40 39 40 37 37 35 39 39
50 51 51 50 50 49 48 47 46 45 45 47 49 53 55 57 57 56 55 53 51 49 48 44 41 39 40 42 42 41 38 36
50 50 50 50 49 48 47 47 47 47 48 49 50 51 55 57 57 57 56 54 52 51 49 47 44 42 40 43 43 42 40 38
49 50 50 49 49 48 47 46 46 46 48 49 50 52 54 56 56 57 56 55 53 53 52 49 46 45 44 43 42 42 41 40
48 48 48 48 49 48 48 46 46 46 48 50 51 51 53 55 56 56 56 56 55 54 52 50 48 46 45 45 45 44 45 44
46 46 47 47 48 48 48 48 47 47 48 51 52 52 53 55 56 57 57 57 55 54 53 51 50 48 46 46 46 46 46 45

GFSFLT2_sfc_30mbdewp_048.txt.gz
Dewpoint
62 63 64 63 61 60 61 62 65 65 65 64 63 63 62 61 59 58 60 63 62 61 60 59 59 58 58 57 57 55 53 53
62 63 63 61 60 57 58 60 60 65 65 65 64 63 61 58 57 57 57 59 60 60 59 59 58 58 57 57 56 55 53 53
63 63 60 59 57 59 59 57 62 65 65 64 63 61 59 56 56 57 55 56 58 60 60 59 58 58 57 57 54 53 53 54
62 62 61 59 59 57 56 57 61 64 64 63 61 59 56 55 56 55 54 55 58 60 60 58 57 56 56 55 53 53 54 54
59 59 58 59 60 58 58 59 58 61 62 61 59 57 58 57 56 54 53 51 50 52 52 51 53 53 52 52 53 53 54 55
58 57 56 57 59 59 58 59 58 59 61 59 58 58 55 54 51 49 46 46 45 44 46 48 49 50 51 52 52 53 54 55
58 57 56 55 56 58 58 58 58 59 59 58 57 56 54 52 50 47 45 46 45 42 41 44 47 48 50 51 51 52 53 54
59 58 57 57 56 57 57 58 59 59 58 57 56 54 53 50 49 46 44 46 46 43 40 41 44 45 46 47 48 48 49 51
57 58 58 57 57 57 58 58 57 58 57 56 55 54 52 50 48 45 44 47 46 44 42 39 41 41 42 43 43 43 44 46
57 58 58 58 58 57 57 57 56 57 56 55 54 53 52 50 48 46 45 48 47 45 43 39 37 38 39 42 43 44 44 46
56 57 57 57 57 56 55 55 56 55 56 55 53 53 52 50 48 48 47 47 49 46 45 42 38 36 36 39 42 43 43 46
55 56 56 56 56 55 54 52 50 53 55 55 54 53 53 52 51 50 49 49 50 48 45 44 42 38 36 36 37 38 41 44
54 55 56 55 55 53 53 52 49 48 50 54 55 54 55 54 54 54 53 51 50 49 46 44 42 39 36 36 36 37 37 38
53 54 54 55 55 55 52 53 50 48 48 50 54 55 56 56 55 55 54 53 51 49 47 44 42 40 36 36 34 35 38 38
52 53 53 54 54 54 50 50 49 48 48 48 50 52 54 55 55 55 54 53 51 49 47 44 43 41 38 37 36 35 37 40
52 52 53 52 52 51 49 49 49 48 46 47 48 50 51 53 55 55 55 53 52 50 48 44 42 41 39 40 41 40 37 37
51 51 52 52 51 50 49 49 48 47 46 46 47 49 51 52 54 55 55 54 53 52 50 46 44 43 42 42 42 42 40 38
50 50 51 51 50 50 49 48 48 47 47 46 47 49 51 52 54 55 55 55 54 53 52 50 49 47 46 45 42 41 40 39
50 50 50 50 50 49 49 48 48 47 47 47 47 48 49 52 54 54 55 55 55 54 53 52 51 49 48 46 47 45 45 43
49 49 49 50 50 49 49 48 47 47 47 47 48 50 51 52 53 54 54 55 55 54 54 53 52 51 50 49 48 47 46 44

GFSFLT2_sfc_30mbdewp_051.txt.gz
Dewpoint
65 64 63 62 63 64 65 65 65 65 64 63 64 64 64 62 61 63 63 64 63 62 61 60 59 58 58 57 57 54 51 52
63 63 64 62 60 61 63 63 62 62 64 63 63 63 62 61 63 65 64 64 62 61 60 60 59 58 58 57 57 55 52 52
63 63 63 62 61 59 61 61 61 61 64 63 62 60 57 56 59 63 63 62 61 60 60 59 59 58 58 57 54 52 52 52
63 63 62 61 60 59 60 61 60 60 63 62 60 58 55 54 58 60 61 61 60 60 59 59 55 53 55 55 52 53 52 52
61 61 60 59 58 58 57 60 60 60 62 60 58 55 55 54 54 55 57 59 58 57 56 52 52 51 51 51 53 53 52 52
59 60 60 59 59 58 59 60 60 59 61 58 55 54 54 54 51 50 51 54 57 55 53 53 53 52 51 53 53 52 53 53
57 58 58 59 57 59 59 59 59 59 60 56 54 53 52 49 49 46 46 50 51 51 52 51 51 51 52 52 53 53 54 53
57 56 57 58 57 58 59 58 58 60 59 57 56 54 52 48 47 46 46 46 48 49 49 50 49 50 51 52 52 53 54 54
56 57 56 57 57 57 58 58 58 59 58 58 55 54 52 49 47 45 47 47 45 44 46 48 48 48 49 50 50 51 51 53
57 57 56 57 58 57 58 59 58 58 58 57 55 53 52 50 47 46 48 48 46 43 42 44 45 45 45 45 44 44 45 47
57 58 56 57 58 58 58 58 57 56 57 56 55 53 51 49 47 47 49 49 48 45 43 41 42 42 42 43 43 43 44 42
57 57 57 57 57 57 57 56 55 56 57 56 54 52 52 51 49 49 48 50 49 47 44 44 41 39 35 39 42 44 43 44
56 56 56 56 56 55 54 54 54 55 56 55 55 53 53 53 51 51 49 48 50 50 47 45 43 41 38 38 38 40 41 42
55 56 56 56 56 56 55 54 52 53 54 56 55 54 54 54 54 53 52 51 51 52 49 46 45 42 40 39 38 38 38 39
54 55 55 56 56 56 54 51 50 49 51 53 54 56 53 54 56 56 56 55 51 52 51 49 46 45 43 42 39 40 39 40
53 54 55 55 56 54 53 51 50 48 48 51 51 53 55 56 57 57 56 56 55 54 53 51 50 47 44 42 44 43 41 40
53 53 54 55 54 54 52 52 51 50 48 48 49 50 52 53 55 56 56 56 56 56 54 52 51 50 47 45 43 43 43 42
52 52 53 53 54 53 52 51 49 48 48 47 48 48 50 52 52 54 55 56 56 56 56 54 52 50 49 48 45 44 42 41
51 51 51 53 52 52 52 51 51 50 49 49 48 49 50 51 52 54 54 55 56 57 56 55 54 53 51 50 49 48 47 44
51 51 51 52 52 51 51 51 51 50 50 49 50 50 50 51 52 53 53 54 55 56 56 56 56 55 54 52 51 51 51 50

GFSFLT2_sfc_30mbdewp_054.txt.gz
Dewpoint
65 64 62 62 62 66 66 66 65 65 66 66 65 65 65 64 63 63 64 64 63 62 61 60 59 59 58 56 54 52 48 49
64 63 63 61 62 63 64 65 65 64 65 65 65 64 63 63 63 64 65 64 62 62 61 60 59 59 58 57 54 51 48 48
63 62 61 62 63 63 62 62 63 63 64 64 63 61 60 59 59 65 64 63 61 61 60 60 59 58 58 55 54 48 48 47
63 61 62 61 61 61 62 63 62 62 61 60 61 60 58 54 63 64 63 62 61 61 60 59 54 50 52 55 48 49 49 49
62 63 62 61 60 60 61 62 61 61 60 58 60 58 54 59 62 61 60 58 54 56 55 50 47 47 49 48 50 50 49 49
62 63 63 62 61 61 61 61 60 61 60 59 59 55 55 55 56 56 55 54 53 52 50 49 49 47 48 50 51 49 49 50
61 61 60 60 59 59 61 60 60 61 60 57 56 54 53 51 52 53 53 53 53 51 50 50 48 47 48 50 50 50 51 49
58 59 60 60 58 59 60 60 60 60 58 55 53 53 52 48 48 47 48 52 51 49 48 47 45 46 48 48 49 50 51 50
58 58 58 58 58 59 59 59 59 59 55 54 51 52 51 49 44 43 45 46 47 46 47 45 44 44 46 48 48 49 49 50
57 57 58 57 58 58 58 59 59 59 57 55 53 50 50 48 44 43 44 45 44 45 46 45 43 43 44 45 45 46 47 48
57 56 57 57 58 58 57 58 58 58 57 53 52 49 48 45 44 45 48 45 44 44 43 42 42 41 42 42 42 41 43 43
57 56 57 57 57 58 58 57 57 57 56 54 52 50 50 47 44 47 49 46 47 45 43 42 40 39 36 39 40 41 41 41
57 56 56 57 56 56 56 55 54 55 54 55 56 51 50 48 45 49 48 48 47 48 46 44 41 41 37 39 40 42 42 41
57 56 56 56 56 56 56 55 53 54 53 54 55 55 51 50 48 48 47 48 51 51 49 47 44 43 41 41 41 41 41 42
56 56 56 56 56 57 56 56 55 53 52 53 54 55 51 50 51 49 49 48 50 52 52 50 47 47 46 45 43 42 42 42
55 56 56 56 57 55 54 53 52 53 52 51 52 54 53 51 52 52 53 51 50 51 52 52 51 48 47 47 48 47 44 43
53 55 56 56 56 55 54 53 52 52 52 52 54 54 53 52 52 54 55 55 55 55 54 55 53 53 50 48 48 48 48 46
53 54 55 55 55 55 54 53 51 51 51 51 53 53 55 55 54 56 56 56 56 56 56 56 56 54 53 52 50 48 47 47
52 52 53 55 55 55 54 53 53 52 50 50 49 51 51 52 54 53 54 55 55 55 56 56 56 55 55 53 53 51 51 50
51 51 51 53 55 55 55 54 53 52 51 49 48 48 49 51 51 52 52 52 52 53 53 54 54 55 55 55 53 53 53 52

GFSFLT2_sfc_30mbdewp_057.txt.gz
Dewpoint
66 65 64 64 63 65 65 67 67 67 66 66 65 65 63 64 64 64 63 63 63 62 62 61 60 59 55 54 53 53 47 48
66 65 64 62 63 63 64 65 64 66 66 66 66 65 64 64 64 64 63 63 63 62 61 60 59 58 56 53 52 49 47 47
64 64 64 63 62 64 64 65 62 64 66 65 64 62 62 62 62 65 63 63 62 61 61 60 59 57 54 52 51 46 46 48
63 63 62 62 63 63 64 63 63 62 62 62 61 61 61 58 63 64 63 62 61 61 60 58 53 48 50 53 50 47 47 48
63 62 61 61 62 63 63 64 63 62 60 58 59 61 59 60 63 63 59 58 56 55 55 49 45 45 50 50 49 48 48 49
62 61 60 61 61 61 62 62 62 61 60 59 60 58 59 61 60 59 56 53 52 50 49 48 47 46 48 50 50 47 48 50
61 62 62 61 60 61 61 62 61 60 60 60 60 56 58 59 58 58 54 53 51 49 48 48 47 47 49 50 49 49 49 49
60 61 61 61 60 60 60 61 60 60 58 58 59 57 56 56 56 55 52 52 50 48 48 47 45 47 49 50 49 49 49 50
58 60 60 59 59 60 61 61 60 58 58 59 58 55 55 54 54 52 51 51 49 48 48 45 43 45 47 48 49 50 49 50
58 59 59 59 59 59 60 60 60 58 59 59 55 54 53 52 49 48 48 49 48 46 45 43 43 43 46 46 46 48 49 50
57 58 58 58 59 59 59 59 59 59 58 55 54 53 51 49 46 47 47 46 45 44 45 43 42 42 44 44 44 45 47 47
57 57 57 58 58 58 58 58 58 59 56 54 52 50 50 50 48 49 47 44 43 44 45 44 42 41 40 41 42 42 42 42
57 57 57 57 56 56 56 56 57 57 57 52 53 50 50 50 48 52 51 47 45 47 44 43 41 41 38 38 40 41 42 41
57 56 57 56 56 56 55 55 56 56 56 57 53 52 50 50 49 50 52 48 49 50 48 44 41 41 37 37 38 39 42 44
57 56 56 56 56 57 56 55 55 54 53 54 55 55 51 50 51 51 51 51 52 53 52 49 45 45 44 42 40 38 41 44
56 56 56 56 57 56 55 54 52 52 52 51 50 54 54 51 51 52 52 51 51 54 53 52 50 47 49 48 50 49 46 44
55 56 56 56 56 56 55 54 53 51 51 51 51 54 56 54 52 53 53 53 53 53 54 55 53 51 49 49 49 49 50 48
55 56 56 56 56 55 55 54 53 52 52 52 52 53 55 55 52 53 55 56 56 55 55 55 56 53 53 52 51 49 48 48
53 54 55 56 56 55 55 54 54 53 52 51 51 53 54 55 55 53 55 57 57 56 57 57 57 56 54 55 54 52 51 49
51 52 52 55 56 55 55 55 54 53 53 52 52 52 53 55 55 55 56 57 57 56 56 56 55 56 56 54 55 52 52 51

GFSFLT2_sfc_30mbdewp_063.txt.gz
Dewpoint
66 65 65 65 65 65 64 65 63 64 65 67 66 65 65 65 65 65 64 64 63 62 62 60 58 57 52 55 56 56 54 54
65 65 65 64 65 63 62 62 61 61 62 63 66 64 65 65 65 65 64 63 63 62 61 58 56 53 52 56 56 55 54 54
64 65 65 64 64 63 61 60 60 61 61 59 64 64 64 64 64 64 64 63 62 61 60 56 54 52 53 54 52 53 54 54
63 63 64 64 64 63 62 61 59 60 61 60 64 64 63 64 64 64 63 63 62 60 58 55 51 51 51 52 52 53 53 54
62 63 63 63 63 62 61 60 60 59 63 64 63 63 63 63 63 62 62 62 60 58 56 53 49 50 50 51 52 53 53 54
62 63 63 63 63 62 61 61 62 61 63 63 63 63 62 62 61 61 60 59 58 56 52 50 48 50 50 53 52 52 53 54
62 62 62 62 62 61 61 62 62 62 62 62 62 62 61 60 60 58 57 57 55 52 51 49 47 49 51 52 52 53 53 54
61 61 61 62 62 61 61 62 61 61 61 61 60 61 61 60 56 55 55 54 51 50 51 50 47 48 51 52 52 53 53 54
60 61 61 61 61 61 61 61 59 58 59 59 59 60 59 60 55 53 54 53 48 50 51 51 49 51 51 52 52 53 53 54
60 61 61 61 60 61 61 60 58 57 57 57 59 58 58 60 57 53 55 52 51 50 51 50 50 50 51 51 52 52 53 53
59 59 60 60 60 60 61 60 59 58 57 57 58 58 57 59 58 55 55 53 54 52 50 49 49 50 50 50 51 52 52 52
58 59 59 59 60 60 60 60 60 58 57 57 58 57 57 58 58 57 56 55 54 50 49 48 49 49 48 48 50 51 52 52
57 57 58 58 58 57 57 57 57 57 57 56 57 56 55 53 55 54 55 54 52 49 49 47 47 49 47 48 48 49 49 49
57 57 57 57 57 57 57 57 57 57 57 56 56 54 54 51 53 53 52 53 51 49 48 48 47 48 45 46 43 43 46 48
56 56 57 57 57 57 57 57 57 56 56 56 55 53 52 51 51 52 51 52 51 48 47 46 44 47 45 42 41 40 41 44
57 56 56 56 57 56 55 54 53 54 54 53 52 52 51 50 50 50 50 52 51 49 47 47 46 44 46 45 45 47 44 44
56 56 56 56 56 55 54 53 53 53 54 53 52 52 51 50 52 51 51 51 53 50 49 48 51 47 44 43 45 48 50 48
56 56 56 56 56 55 54 53 52 51 53 54 53 53 52 51 51 53 51 51 51 55 53 52 51 53 51 48 45 44 47 49
55 55 55 56 56 55 54 54 53 50 52 53 52 52 54 54 52 52 54 53 51 53 55 55 53 53 54 53 52 51 52 51
55 55 54 56 55 55 55 54 53 51 50 52 52 51 52 54 55 52 53 55 55 55 55 55 56 55 54 55 54 54 53 52

GFSFLT2_sfc_30mbdewp_069.txt.gz
Dewpoint
68 69 69 69 68 68 66 65 66 68 67 66 67 67 67 67 66 66 66 65 65 64 64 62 62 62 61 59 58 56 54 55
66 67 66 65 66 67 66 64 64 64 65 65 64 65 65 66 66 66 66 65 64 63 61 60 62 61 59 58 57 55 53 54
64 64 64 64 65 66 65 63 62 61 64 64 62 63 64 64 65 64 65 64 63 61 60 61 61 60 58 58 55 54 53 53
63 64 63 63 64 64 64 62 63 63 63 62 61 62 63 62 63 64 64 63 62 60 59 61 59 58 58 55 54 54 54 54
62 63 63 62 62 62 62 63 63 62 61 61 61 62 63 62 63 63 63 62 60 58 57 56 56 55 54 53 53 54 54 55
62 62 62 62 62 61 60 61 61 61 60 60 61 61 62 63 62 61 61 59 58 55 51 52 53 53 53 53 53 54 54 55
61 61 61 62 61 61 60 59 60 60 59 59 61 61 62 63 61 61 59 58 56 53 50 50 52 52 53 53 53 53 54 55
61 61 62 62 61 60 59 59 60 59 60 59 62 61 62 61 60 60 58 57 55 52 49 50 52 52 52 52 53 53 54 55
60 61 62 62 61 60 60 61 61 60 60 59 61 62 62 61 59 58 57 56 54 51 48 49 51 52 52 52 53 53 54 54
60 61 60 61 61 60 61 61 61 61 62 61 60 62 61 59 58 57 56 54 52 51 49 48 49 52 52 52 52 53 54 54
59 60 60 60 61 61 60 60 60 60 61 61 62 61 59 57 55 54 54 52 51 50 50 49 49 52 52 52 52 53 53 54
59 58 60 60 61 60 60 59 59 59 59 60 61 60 58 55 54 53 52 49 49 49 49 50 50 52 51 52 52 53 53 53
58 57 59 60 59 58 58 57 58 58 58 59 59 60 58 55 54 53 51 46 47 51 50 49 50 51 50 50 51 52 52 53
57 57 58 59 59 59 59 59 58 58 58 58 59 58 60 56 54 54 51 48 50 51 49 49 49 50 49 48 48 49 51 52
57 57 57 58 59 58 58 58 58 58 57 57 58 58 58 59 55 54 54 51 52 51 50 49 48 50 49 47 44 46 46 48
56 56 57 57 58 57 56 56 55 56 57 57 58 57 57 57 58 55 56 55 53 51 50 49 49 48 47 47 46 46 45 44
56 56 56 57 57 57 56 55 55 56 56 56 57 57 56 55 57 56 54 56 54 53 50 48 49 49 47 46 46 46 47 44
55 55 55 56 56 56 55 54 54 55 55 55 56 57 56 55 56 55 55 55 55 54 51 49 49 49 48 47 46 46 47 48
54 54 54 55 55 55 55 54 54 54 54 55 55 55 55 54 54 55 54 54 55 55 54 54 51 49 49 47 47 46 45 48
53 53 53 55 55 55 55 54 54 54 54 54 55 55 54 53 54 55 55 55 55 55 55 54 54 51 49 49 48 48 48 47

GFSFLT2_sfc_30mbdewp_072.txt.gz
Dewpoint
68 67 68 69 69 67 66 65 67 68 66 66 66 66 66 65 65 65 65 66 66 65 65 64 64 63 62 61 59 57 56 56
66 67 68 68 67 66 66 64 64 64 65 64 63 63 63 64 64 65 66 65 65 65 64 64 63 62 60 59 58 56 55 56
65 66 66 65 65 65 65 64 65 65 65 64 64 64 63 63 62 65 65 65 64 62 63 63 62 60 59 58 55 54 54 54
63 64 63 64 65 66 64 64 63 64 64 63 63 63 64 62 62 63 63 64 62 61 62 62 60 58 58 55 53 54 53 53
62 63 63 63 63 63 63 62 61 62 63 63 61 61 63 63 62 62 63 62 59 60 61 59 57 57 54 54 54 54 54 54
61 62 62 62 62 62 62 62 62 62 62 62 62 62 63 61 62 62 62 60 57 59 57 57 56 54 53 53 54 54 54 55
61 62 62 62 61 61 61 62 62 62 61 60 61 62 61 60 61 61 61 58 55 54 54 55 53 53 53 53 53 54 54 55
60 60 61 61 61 61 60 60 60 61 60 60 61 61 61 60 61 60 59 58 54 52 53 53 52 53 53 53 53 54 54 55
59 60 60 60 60 60 60 59 60 60 60 60 61 61 61 61 61 59 58 56 53 50 50 52 52 52 52 53 53 54 54 54
59 59 60 60 60 60 60 60 60 60 61 59 60 61 62 61 60 58 57 55 52 49 50 51 52 52 52 52 53 54 54 54
58 59 59 59 60 60 61 60 60 61 60 61 60 61 62 60 59 58 56 54 52 49 49 50 52 51 52 52 53 53 54 54
58 59 59 60 60 60 60 59 59 60 61 61 60 62 61 59 57 56 55 54 52 50 48 49 52 52 52 52 52 53 53 53
58 59 60 60 59 58 58 57 58 58 60 61 60 60 58 56 55 54 53 52 51 50 48 48 51 52 51 51 51 52 53 53
56 57 59 60 59 58 59 58 58 58 58 60 61 59 57 56 54 53 51 49 50 50 49 49 51 52 50 49 48 49 51 52
56 56 58 59 59 58 58 58 58 57 57 58 59 60 58 57 56 51 51 48 49 50 50 48 49 51 51 48 47 47 49 50
56 56 56 59 59 57 57 56 55 57 57 58 58 59 59 57 56 54 51 49 50 50 50 49 50 49 49 48 48 47 47 46
55 56 56 57 58 58 57 57 56 57 57 57 58 58 59 59 56 56 53 53 53 51 51 49 49 50 48 47 46 47 47 45
55 55 54 55 56 57 57 55 55 55 56 56 57 57 57 58 59 56 56 56 54 53 52 50 49 50 49 48 46 46 46 45
54 54 53 54 55 56 56 55 54 54 55 55 56 56 55 55 57 57 57 55 55 54 52 51 50 50 50 48 48 47 48 47
54 54 53 54 55 55 55 54 54 55 55 55 56 56 56 56 56 56 56 56 56 55 54 53 53 51 50 51 49 49 48 47

GFSFLT2_sfc_30mbdewp_075.txt.gz
Dewpoint
67 67 69 69 68 68 67 66 66 68 68 66 66 64 65 64 64 64 66 66 67 66 66 65 65 64 62 61 59 59 57 57
68 67 67 68 68 67 67 66 64 64 64 65 65 64 64 63 63 64 65 67 66 66 65 65 64 62 61 59 59 58 56 56
66 66 67 67 68 67 66 65 65 64 65 64 64 63 62 62 62 63 65 65 65 65 64 64 62 61 60 59 57 56 56 55
66 66 66 66 66 66 66 65 64 65 65 63 63 63 62 61 62 64 63 65 64 64 64 62 60 59 58 56 55 55 55 55
64 65 65 65 64 65 65 65 65 65 64 63 63 63 63 63 63 63 62 63 63 63 62 59 59 58 56 55 55 54 54 54
63 64 64 63 64 63 64 64 64 64 64 63 63 63 62 61 61 63 63 63 61 61 60 59 58 57 56 55 55 54 53 53
62 63 63 63 62 62 63 62 62 62 63 62 62 62 62 62 61 62 62 60 60 59 58 58 57 56 55 55 55 54 54 53
61 61 62 63 62 61 62 62 62 62 62 62 61 62 62 61 61 62 60 59 58 57 57 56 55 55 55 54 54 54 53 54
60 61 62 62 61 61 61 61 61 61 61 61 62 62 62 60 60 61 60 57 56 56 56 55 55 54 53 54 54 54 53 54
60 60 61 61 60 60 61 60 60 61 61 61 61 61 62 60 60 60 59 56 54 54 54 54 54 53 53 53 52 53 53 54
59 60 60 60 60 60 60 61 60 60 61 60 61 61 62 61 60 59 58 55 53 53 53 54 53 52 52 52 52 52 54 54
59 60 59 60 60 60 61 61 61 61 60 60 60 62 61 61 60 58 58 55 52 52 53 53 53 52 51 52 52 53 53 53
59 59 59 59 58 58 58 58 59 59 61 61 60 60 62 60 58 58 57 55 53 52 52 53 52 53 52 52 52 53 53 53
58 59 59 60 58 58 58 58 59 59 60 61 61 60 60 59 58 57 56 56 54 52 51 52 52 53 50 50 49 50 52 53
58 58 59 59 59 59 59 59 58 58 58 59 59 59 58 57 57 56 55 54 53 52 51 51 51 53 52 50 48 47 49 52
57 57 57 59 59 58 57 56 56 57 57 58 59 59 58 57 55 54 53 52 53 52 51 50 51 51 52 50 51 51 48 48
56 56 57 58 58 57 56 56 56 57 58 58 58 59 58 58 56 54 52 51 52 52 51 50 51 52 51 50 49 49 51 49
55 56 56 58 58 58 57 57 56 56 56 57 57 58 59 57 57 55 53 52 52 52 52 51 51 52 52 51 49 48 47 46
55 55 55 56 57 58 57 56 56 56 56 57 57 57 57 58 57 57 56 54 53 52 52 51 52 51 52 51 51 50 49 47
54 54 53 54 55 57 57 56 56 56 56 56 56 57 56 57 58 57 57 56 55 54 53 52 52 52 52 52 51 51 51 49

GFSFLT2_sfc_30mbdewp_081.txt.gz
Dewpoint
67 67 67 68 68 69 70 69 69 69 69 66 67 65 67 67 66 65 65 64 66 68 68 67 66 65 64 63 61 61 61 60
67 67 67 67 67 68 68 69 68 68 68 66 66 67 66 66 66 65 64 65 65 67 67 66 65 64 63 61 59 58 57 57
68 67 67 66 66 66 67 67 67 67 66 65 65 66 65 65 64 63 65 64 63 66 66 65 63 62 61 59 58 53 55 55
67 67 66 66 63 68 66 66 65 64 62 64 64 65 64 63 61 60 65 64 65 66 65 63 62 62 60 59 57 55 51 51
62 67 66 66 63 67 65 64 63 64 63 64 64 66 64 64 63 64 64 64 65 65 64 63 62 60 59 57 55 52 50 54
60 65 64 63 62 66 64 62 64 63 64 64 64 64 64 64 62 63 63 64 64 64 64 63 61 59 57 54 54 50 49 55
59 62 62 63 66 66 66 62 62 64 63 64 64 63 62 61 61 62 61 63 64 64 63 62 59 57 56 55 51 50 49 53
58 62 63 64 64 65 65 65 64 64 64 64 63 63 62 61 60 61 63 63 62 62 62 61 59 57 55 52 51 50 50 49
58 63 63 63 62 63 63 65 65 64 64 64 63 62 62 61 61 62 62 63 61 62 62 61 56 55 53 53 51 49 49 48
58 62 62 62 60 62 62 64 64 64 64 64 62 62 63 62 62 62 62 62 62 62 61 58 56 52 52 51 50 48 48 48
58 61 61 62 61 62 61 63 63 64 64 63 63 62 63 63 61 62 62 61 62 61 60 57 54 53 53 49 50 48 48 47
59 61 61 61 61 61 61 61 62 62 62 62 62 62 62 62 61 61 61 61 61 60 59 56 53 52 50 49 52 50 47 46
59 60 60 60 59 59 59 59 60 61 61 62 62 62 62 62 61 60 60 60 59 60 58 55 54 53 51 51 52 53 52 47
58 60 60 59 58 58 58 59 59 60 61 61 61 61 62 62 61 60 60 59 58 58 58 55 53 53 50 50 50 52 52 52
57 59 59 59 57 58 58 59 59 59 59 60 60 60 60 61 60 60 59 58 57 57 58 55 52 53 51 49 48 46 49 52
57 58 58 58 58 57 58 57 56 57 57 59 59 60 61 61 60 59 59 58 57 57 58 57 53 52 52 50 48 43 46 48
57 57 57 57 57 56 55 54 55 56 56 58 60 59 60 60 60 59 58 58 57 57 58 56 54 52 51 50 50 49 49 47
57 57 57 57 57 56 54 54 55 56 56 58 59 59 58 58 59 59 59 58 58 57 58 56 54 53 53 52 50 49 49 45
56 56 56 56 56 56 54 54 56 56 56 57 58 57 57 57 57 58 58 59 59 58 58 56 55 54 54 52 52 52 50 48
56 56 56 56 56 55 54 54 55 55 56 56 57 57 58 58 57 57 57 57 58 58 57 56 56 55 54 54 53 53 52 52

GFSFLT2_sfc_30mbdewp_084.txt.gz
Dewpoint
69 67 68 69 69 69 69 69 68 68 69 69 69 68 67 66 67 66 67 65 65 66 68 68 67 66 66 65 64 62 63 64
69 68 68 68 68 68 69 69 69 69 69 68 68 67 66 65 66 63 66 66 65 66 67 67 66 65 65 63 61 62 62 62
69 68 68 69 68 68 68 68 69 68 68 67 66 67 67 66 66 65 66 65 65 65 66 66 65 64 63 61 60 59 60 60
68 67 68 68 65 68 67 67 67 67 65 66 66 67 66 66 65 65 63 65 64 65 65 64 64 63 62 60 59 58 59 59
68 67 68 68 64 68 67 67 66 66 65 65 66 67 65 64 61 63 64 65 65 65 64 64 63 63 61 61 59 56 58 58
67 67 67 67 65 66 66 67 66 66 65 64 65 66 63 63 62 63 64 64 65 64 64 64 63 62 61 60 58 54 58 58
62 66 66 67 65 65 66 65 65 65 65 65 65 66 64 64 63 63 63 64 64 64 64 63 62 61 60 58 54 54 57 58
61 64 65 65 65 66 66 66 65 65 65 65 65 65 64 63 63 63 62 63 64 63 63 62 61 60 59 56 53 52 56 56
61 63 64 65 64 65 66 65 66 64 64 64 64 64 63 62 62 62 62 63 63 62 62 61 61 61 57 55 53 52 51 56
61 64 64 64 64 64 64 64 65 65 65 64 64 63 63 62 62 62 63 63 62 61 61 61 61 60 54 53 51 50 50 54
61 64 64 64 64 63 63 62 64 65 64 64 63 62 62 62 62 63 63 62 61 61 61 61 60 59 53 52 51 49 50 50
62 63 63 63 63 62 62 62 63 64 64 63 63 62 62 63 62 62 62 61 61 61 60 61 59 57 51 51 51 50 49 50
62 62 62 63 61 60 60 60 61 62 62 62 62 63 63 63 62 62 61 60 60 60 60 59 59 56 53 53 53 54 50 50
62 62 62 62 61 60 59 59 60 60 61 61 62 62 62 62 62 61 60 60 60 59 59 58 58 55 51 51 49 50 52 52
60 61 61 61 59 59 59 59 59 57 59 61 61 62 61 62 62 60 60 60 59 59 59 58 56 55 51 49 49 48 50 53
59 60 60 60 59 58 58 57 57 57 58 60 60 61 61 61 61 60 60 60 59 59 59 58 57 53 53 51 49 49 48 50
59 60 59 59 59 58 58 57 57 57 58 59 59 60 61 62 60 60 59 59 59 59 59 58 58 54 52 51 49 51 49 50
59 59 59 59 59 59 58 56 55 56 57 58 59 58 58 59 60 59 59 59 58 58 59 58 58 56 54 52 51 50 49 49
58 58 58 58 58 58 57 56 55 56 57 58 58 57 57 57 59 59 58 58 58 57 58 58 57 56 54 52 53 52 51 51
58 57 57 58 58 57 57 57 56 56 57 58 58 57 57 58 58 58 58 59 58 58 57 58 57 56 54 54 53 53 53 52

GFSFLT2_sfc_30mbdewp_090.txt.gz
Dewpoint
68 69 69 69 69 69 69 70 71 71 71 70 70 70 69 69 68 67 66 66 66 66 66 66 64 66 65 65 65 65 65 65
67 68 69 69 69 69 69 70 70 70 70 70 69 70 69 68 67 66 65 66 66 66 65 66 64 63 65 64 65 65 65 65
66 67 67 68 68 68 69 69 69 69 69 68 68 68 68 67 65 66 65 65 66 65 65 63 65 63 64 64 64 64 64 64
66 66 66 67 67 68 68 68 68 68 68 68 67 67 66 65 65 66 63 63 64 65 65 64 65 64 64 63 63 63 64 64
66 66 66 66 67 67 67 68 67 67 67 66 66 66 66 65 64 65 64 64 64 65 65 65 64 64 64 61 61 61 63 63
67 67 67 67 67 66 66 66 66 66 65 65 65 64 64 64 63 63 63 64 63 63 63 64 64 64 63 61 60 61 62 63
66 67 67 67 67 66 66 66 66 65 65 66 65 63 62 63 62 62 63 63 63 63 62 63 63 63 62 61 59 60 62 63
66 66 67 67 67 66 66 66 66 65 65 65 65 64 63 62 61 62 62 62 62 62 61 62 63 63 62 60 59 59 60 61
66 66 67 66 66 66 65 65 66 65 65 65 65 64 63 62 61 61 62 62 62 63 62 62 62 63 62 59 59 59 60 60
66 66 66 66 65 65 65 65 65 65 64 65 65 64 63 62 61 61 62 63 62 61 61 61 61 61 60 59 58 58 59 59
64 65 65 65 65 65 64 64 64 64 64 64 64 64 64 63 62 62 62 62 62 61 61 60 59 60 60 59 58 57 58 59
64 65 65 65 64 64 64 64 63 63 63 64 63 64 63 63 62 62 63 62 61 61 60 60 59 59 60 59 55 56 57 58
61 64 64 64 63 62 62 62 63 63 63 63 63 63 63 62 61 61 62 61 60 60 59 59 59 60 59 57 53 55 55 56
62 63 63 63 63 62 61 60 62 62 62 62 62 62 62 61 61 61 61 60 59 59 59 58 58 60 56 54 50 51 52 54
62 63 63 62 62 60 60 59 60 60 61 61 61 61 61 61 62 61 61 60 59 60 59 58 57 58 58 53 49 47 50 52
62 63 62 62 61 60 59 58 57 58 59 59 60 61 61 61 61 61 60 60 59 59 59 58 58 56 57 55 53 51 47 49
61 63 62 61 61 60 58 57 57 58 58 58 58 59 61 61 61 60 60 60 60 59 59 58 58 56 54 54 52 51 50 48
62 62 61 60 60 59 58 58 57 57 57 58 58 59 60 60 61 61 60 60 60 59 59 59 58 57 56 53 52 50 49 48
61 61 60 60 59 58 58 58 57 56 57 57 58 58 59 60 60 60 60 60 60 60 59 59 58 57 56 54 53 51 49 50
61 61 59 59 58 58 58 57 57 57 57 58 58 58 58 59 59 60 60 60 60 60 60 59 59 57 56 56 55 54 52 51

GFSFLT2_sfc_30mbdewp_093.txt.gz
Dewpoint
68 69 70 70 70 70 70 70 70 70 70 70 71 70 70 70 69 68 68 67 67 66 66 66 66 66 66 65 66 66 65 65
67 68 69 69 69 69 69 70 70 70 70 70 70 69 69 69 69 68 67 66 66 66 66 65 65 64 65 65 65 65 65 65
66 67 67 67 68 68 69 69 70 70 70 70 69 69 69 68 67 67 66 66 65 66 66 65 64 64 65 64 65 65 65 65
66 66 66 66 67 68 68 69 69 69 69 69 68 68 67 66 66 66 66 65 66 65 65 62 63 63 65 65 64 64 64 64
65 65 66 66 67 67 67 68 67 67 67 67 67 66 66 65 65 65 64 64 64 64 63 63 63 64 64 64 63 63 63 64
65 65 65 66 66 66 66 66 66 66 66 66 66 66 65 64 64 64 62 63 63 64 64 64 63 64 64 63 62 62 63 63
65 65 65 65 65 65 65 65 66 66 65 65 65 64 63 64 63 63 62 62 63 62 63 63 63 63 63 62 61 62 63 63
66 66 65 66 66 65 65 65 65 65 64 65 65 63 62 62 62 62 61 61 62 61 62 62 62 62 62 62 61 61 62 63
66 66 67 66 66 66 65 65 65 64 64 65 64 63 62 61 60 61 61 61 61 61 61 62 62 62 62 61 60 60 61 62
65 66 67 66 66 66 65 65 65 65 64 65 64 63 62 61 61 61 61 62 62 62 61 61 61 61 60 60 60 60 60 61
61 66 65 66 66 66 65 65 65 65 64 64 64 63 62 62 61 61 61 61 61 61 61 60 60 60 60 60 59 59 60 60
54 65 65 66 65 65 64 64 64 64 64 64 64 64 63 62 61 61 61 60 61 60 60 61 59 60 59 58 58 58 59 59
46 63 65 65 64 63 63 63 63 63 64 64 63 63 63 63 61 61 60 60 59 61 60 59 59 60 59 56 55 57 58 59
45 61 64 64 64 63 63 63 63 63 63 63 63 63 62 62 61 60 61 61 61 60 59 58 59 59 57 54 51 53 55 57
52 60 63 64 64 62 61 61 61 61 61 62 62 62 62 62 61 61 61 61 60 59 59 58 57 59 57 54 50 50 52 54
54 60 62 63 63 61 60 60 59 60 62 61 61 61 61 61 61 61 61 61 59 59 59 58 57 57 58 56 54 53 50 49
56 61 62 63 62 61 59 58 58 58 60 59 60 60 60 61 61 61 60 60 60 59 59 59 58 57 56 55 54 53 53 51
58 61 62 62 61 60 59 58 57 57 58 58 58 59 60 60 60 61 60 60 60 59 59 59 58 58 57 56 53 52 51 51
55 62 61 61 61 59 58 57 57 57 57 58 57 57 58 58 60 60 60 60 60 60 59 59 58 58 56 55 54 53 53 52
51 61 60 60 60 59 58 58 57 57 57 57 57 57 57 58 58 59 60 60 60 60 59 59 59 58 57 56 55 54 54 53

GFSFLT2_sfc_30mbdewp_096.txt.gz
Dewpoint
69 70 70 70 70 69 70 69 69 70 70 70 71 71 70 70 70 70 70 68 68 68 67 67 67 68 67 66 66 66 66 66
68 68 69 69 69 69 69 69 69 69 70 70 70 70 70 69 69 69 69 67 67 67 66 67 67 67 66 66 66 66 65 65
66 66 67 68 68 69 69 69 69 69 69 69 69 69 69 69 69 69 68 66 66 66 66 66 65 66 66 65 65 65 65 65
65 65 65 66 66 68 68 69 69 69 69 69 68 68 68 68 68 68 67 66 66 66 65 65 64 65 64 63 64 64 64 64
64 64 65 64 65 66 67 67 67 68 68 68 68 67 67 66 66 66 66 66 66 65 64 63 63 64 64 64 63 63 64 64
64 65 64 64 65 65 65 65 66 66 67 67 67 66 66 64 65 64 64 64 64 64 63 62 62 63 63 63 63 63 63 63
64 65 65 65 65 65 65 65 65 66 66 66 66 66 65 64 64 63 62 63 63 62 62 62 62 63 63 63 62 62 62 63
65 65 65 64 64 64 64 64 65 64 65 66 66 65 64 64 63 63 62 62 62 62 61 61 62 62 62 62 62 62 62 63
60 65 65 64 64 64 64 64 64 64 64 65 64 64 63 63 62 62 62 62 62 61 61 62 62 62 62 62 62 61 62 62
40 64 65 64 64 64 64 64 64 64 64 64 64 63 62 62 61 61 61 61 61 60 60 60 61 61 61 61 61 61 61 61
36 60 65 65 65 64 64 64 64 64 64 64 63 62 62 61 61 61 62 62 61 61 60 60 59 60 60 60 60 60 61 61
25 52 64 66 66 65 65 64 64 64 63 63 63 62 61 61 61 61 61 61 61 61 60 60 60 60 60 59 60 60 60 61
24 39 62 65 65 64 63 62 63 64 64 63 63 63 62 62 61 60 61 60 60 60 60 59 59 60 58 56 56 58 59 60
46 33 57 64 64 64 63 63 63 64 64 63 64 63 63 62 62 61 60 60 60 60 59 59 59 60 57 55 52 54 56 58
47 49 52 63 63 64 62 62 62 61 62 62 63 63 63 62 62 61 61 60 59 60 60 59 58 59 57 54 50 50 53 55
46 50 52 62 64 63 61 61 59 61 61 62 62 63 62 62 61 61 60 61 61 60 60 59 58 57 57 55 53 53 51 50
46 49 54 61 63 62 61 61 60 61 60 51 56 61 62 61 61 60 60 60 60 60 59 59 59 57 57 56 54 53 53 51
45 48 57 62 62 62 61 60 59 60 60 59 60 60 60 61 61 61 60 60 59 60 60 59 58 58 57 57 55 53 52 51
43 46 53 62 61 61 60 60 58 59 60 60 59 59 59 60 60 59 59 59 60 60 59 59 59 58 57 57 56 54 53 53
42 45 48 61 61 61 60 58 58 58 58 58 58 59 59 60 59 59 58 60 60 59 59 59 59 58 58 57 56 54 54 53

GFSFLT2_sfc_30mbdewp_102.txt.gz
Dewpoint
68 69 70 70 70 70 69 69 69 69 70 71 72 71 71 70 70 70 70 70 70 70 69 68 68 68 68 68 68 67 63 61
69 69 70 69 69 70 69 69 69 69 69 70 70 70 70 70 70 70 70 69 69 69 68 68 68 68 67 67 67 67 64 64
68 68 69 69 69 69 69 69 69 68 69 69 69 67 68 68 68 69 70 69 68 68 68 68 67 68 67 67 66 65 66 65
67 68 68 68 68 69 69 68 67 67 66 67 67 66 66 65 66 69 69 68 67 67 67 67 67 65 66 66 65 61 64 63
64 67 67 68 67 67 68 68 68 68 67 67 66 66 66 66 66 67 67 67 66 65 66 65 63 63 63 62 61 63 63 62
61 64 66 67 66 66 67 67 67 67 68 69 68 68 65 65 64 65 65 65 64 64 63 63 63 63 63 62 62 62 60 60
45 61 64 65 66 65 65 66 66 66 67 67 68 67 66 64 63 65 65 64 65 64 64 64 64 64 63 63 62 62 61 61
32 45 59 64 64 64 64 64 64 65 66 66 67 67 66 66 66 66 63 64 65 65 65 64 64 63 63 63 63 61 61 61
43 38 46 59 63 63 63 62 63 62 64 66 67 67 66 65 65 64 65 64 66 66 66 65 64 63 63 63 62 62 62 62
47 47 44 45 57 61 63 63 63 61 62 65 66 66 66 66 65 64 65 65 65 64 64 63 63 63 62 63 62 62 62 62
48 49 49 46 46 57 60 63 64 63 62 63 64 66 65 66 64 64 65 65 64 63 63 63 62 62 61 61 61 62 62 61
47 48 50 51 49 49 58 59 65 64 63 62 63 66 66 65 64 64 64 63 63 63 62 62 61 61 61 61 61 61 61 61
45 47 48 50 49 43 52 57 62 61 62 62 63 64 65 65 64 64 63 62 62 62 61 60 60 61 60 60 60 61 60 60
45 46 46 47 49 48 47 54 56 59 61 63 63 64 65 64 63 63 63 62 62 62 61 59 60 61 58 57 54 55 59 60
44 45 46 47 49 50 49 54 56 59 61 63 64 64 64 63 63 62 62 62 62 62 61 60 59 60 59 56 53 53 55 58
42 43 44 45 47 49 50 49 54 56 58 62 63 64 64 63 63 62 62 62 62 62 61 61 60 58 60 59 57 55 54 51
40 41 42 43 45 47 51 51 56 55 57 61 63 63 63 63 62 62 62 62 62 62 61 61 61 59 59 58 57 56 56 54
38 39 40 42 44 46 50 54 54 55 56 60 62 63 62 63 63 63 62 62 61 61 61 60 60 60 60 59 57 55 54 54
38 38 39 40 42 45 50 55 54 58 57 60 61 61 62 62 62 59 60 61 61 61 61 61 60 60 60 59 58 57 55 55
37 37 37 39 42 46 50 57 56 60 59 60 60 61 61 62 60 57 56 59 60 61 61 61 60 60 59 59 59 58 58 57

GFSFLT2_sfc_30mbdewp_105.txt.gz
Dewpoint
67 70 70 70 70 69 69 69 70 71 71 72 72 72 71 71 70 71 71 70 70 70 70 69 68 68 68 68 68 67 63 59
68 69 69 69 69 69 69 68 69 69 70 71 72 71 71 70 70 70 70 70 70 70 69 68 68 68 68 68 67 67 65 62
68 69 69 69 68 69 69 69 68 68 69 70 70 69 70 69 69 69 70 69 69 69 68 68 67 67 67 67 67 65 62 61
68 69 69 69 68 68 68 67 67 66 65 66 67 66 66 65 67 68 69 69 68 68 68 68 67 65 66 67 66 62 62 62
64 67 68 68 68 68 68 66 66 66 66 66 66 65 65 65 64 67 68 68 67 67 67 66 64 63 64 65 64 62 62 63
60 63 66 68 67 67 67 66 67 65 65 67 66 66 64 63 61 64 66 66 65 64 65 65 64 63 63 64 63 62 61 62
35 53 61 65 66 65 65 65 66 66 67 68 65 63 63 62 61 61 64 63 64 63 64 64 64 63 63 63 63 63 62 61
37 38 46 58 62 65 64 64 64 65 64 67 68 67 66 63 61 60 60 63 66 63 63 64 64 64 63 63 63 63 63 62
44 45 42 45 57 61 63 63 63 61 62 64 67 67 67 64 64 64 61 61 65 66 65 64 64 64 63 63 63 63 62 62
46 47 49 50 47 52 58 59 62 62 60 63 65 66 66 66 63 65 65 62 65 65 64 64 63 63 62 62 63 63 62 62
45 47 48 50 51 50 51 58 60 61 61 61 64 65 64 66 64 65 64 63 65 65 64 64 63 62 62 62 62 62 62 62
45 46 47 49 50 51 49 49 58 60 60 62 63 65 65 66 65 65 65 64 65 64 64 63 63 62 60 61 61 61 62 62
45 46 47 47 47 47 46 43 50 56 59 60 63 64 66 66 65 65 64 63 64 64 63 62 62 62 61 60 61 61 62 61
45 45 46 46 46 47 48 49 47 51 56 59 62 64 66 65 65 64 64 63 63 63 62 61 61 62 59 57 55 57 60 60
44 44 45 46 47 47 48 49 50 51 57 58 59 63 65 65 65 64 64 63 63 63 62 60 59 61 60 57 54 54 56 59
43 43 44 44 46 46 47 48 48 44 50 55 59 61 63 65 65 64 63 63 62 62 62 61 60 59 60 59 57 55 53 53
42 42 42 44 44 45 46 48 49 50 50 53 58 61 63 64 65 64 63 63 63 62 61 61 61 60 59 59 58 57 55 53
41 41 41 42 42 42 44 46 48 51 50 53 56 62 63 64 64 63 63 63 62 63 62 62 61 60 60 59 58 57 55 55
40 40 40 40 40 41 43 45 47 50 52 54 56 61 62 62 63 63 62 62 58 55 57 61 61 61 60 60 59 58 57 55
39 38 38 38 39 40 42 45 48 51 53 55 57 60 62 62 63 62 62 61 59 61 62 62 62 61 60 60 60 59 58 57

GFSFLT2_sfc_30mbdewp_108.txt.gz
Dewpoint
71 70 70 70 70 70 70 71 71 72 71 72 72 72 71 71 70 71 71 71 70 70 70 69 68 68 68 68 68 67 67 65
70 71 70 70 70 69 69 69 70 71 71 71 71 71 71 71 70 70 70 71 70 70 70 69 68 68 68 68 68 67 67 66
68 70 70 70 69 69 69 69 69 70 70 71 71 71 71 70 70 69 70 70 70 69 69 69 68 67 67 67 67 67 66 64
68 69 70 69 69 69 69 68 68 68 68 70 71 70 70 69 69 69 69 69 69 69 68 68 67 67 67 67 67 66 65 63
68 69 69 69 69 70 69 68 67 68 67 68 69 68 68 68 68 68 69 69 69 68 68 68 68 67 66 66 66 66 65 63
67 69 69 69 69 68 69 68 68 68 68 68 68 68 67 67 66 68 69 68 68 66 67 67 67 66 65 65 65 65 65 63
41 52 66 68 67 68 68 68 68 67 68 68 67 67 67 66 65 66 67 67 67 66 66 66 66 65 65 64 64 64 64 63
42 47 47 49 66 65 66 66 66 68 67 67 68 67 66 65 65 63 66 66 66 66 65 65 65 64 64 64 64 64 64 63
46 46 51 53 53 56 64 65 66 65 66 67 67 68 68 66 65 63 62 65 63 65 65 66 65 64 64 64 64 64 64 63
46 48 50 53 54 55 54 55 64 65 64 65 68 67 67 67 66 64 65 63 65 66 65 65 64 64 64 64 64 64 64 63
46 47 49 51 53 54 55 54 53 63 64 64 67 67 67 67 66 65 65 64 65 65 65 64 64 64 63 62 63 63 63 63
46 48 49 50 51 52 54 54 53 53 61 64 64 66 66 66 66 65 65 64 64 66 64 65 64 64 62 62 62 63 62 62
46 46 48 49 49 49 48 49 51 50 54 60 63 65 66 65 65 65 65 64 63 65 64 63 63 63 61 61 61 62 62 62
44 45 46 46 47 49 49 50 50 52 53 54 60 61 64 65 65 65 65 64 63 64 63 62 62 63 59 58 55 57 59 61
43 44 44 45 46 47 48 49 49 50 51 50 52 60 62 64 65 66 64 64 62 64 63 62 60 62 60 57 54 52 56 59
43 43 43 43 45 45 45 46 46 48 50 52 51 60 61 63 65 65 64 63 63 63 63 61 60 60 61 59 57 57 54 53
42 42 42 42 43 43 42 43 45 47 49 50 53 53 60 62 64 65 64 63 61 62 63 61 60 59 59 59 58 58 57 54
41 40 40 41 41 41 40 41 42 44 46 48 50 53 56 60 63 64 64 63 63 62 58 61 61 60 60 59 58 57 57 56
39 39 39 40 39 39 39 40 41 42 44 46 48 52 56 57 60 64 64 63 62 62 61 61 61 61 60 59 59 58 58 57
38 38 38 38 38 38 38 39 41 43 45 47 49 52 55 58 60 62 63 63 62 62 60 61 60 59 59 60 60 59 59 58

GFSFLT2_sfc_30mbdewp_114.txt.gz
Dewpoint
69 69 70 70 69 70 70 71 71 71 71 71 71 71 70 70 70 70 70 70 71 71 70 70 70 69 68 68 68 67 66 66
69 69 69 69 69 69 70 70 71 71 70 71 71 70 70 70 69 70 70 70 71 70 70 70 69 68 67 68 68 67 67 66
68 68 69 68 69 69 70 70 70 70 70 70 70 71 70 70 70 69 69 70 70 70 70 69 69 67 67 67 67 67 67 66
69 69 69 68 69 69 69 70 70 70 71 70 70 70 70 70 70 69 69 69 69 69 69 69 69 68 67 67 67 66 66 66
69 70 69 69 69 68 68 68 69 69 70 69 69 69 70 70 70 69 69 69 69 69 69 68 68 67 66 66 66 66 66 66
67 69 69 69 69 68 68 67 67 68 68 69 69 69 69 69 69 69 68 68 68 69 68 68 67 67 66 66 66 66 66 65
66 65 62 65 67 68 69 68 67 67 67 68 69 69 68 69 69 69 68 68 68 68 68 67 67 67 67 66 66 66 65 65
51 53 54 55 56 56 60 66 68 67 67 67 68 67 67 67 68 68 68 68 68 68 67 67 67 66 66 66 66 66 65 65
51 51 51 51 52 53 55 56 58 61 67 68 67 68 67 66 66 67 68 68 68 67 67 66 66 66 65 65 65 65 65 64
48 48 48 49 50 51 52 53 55 56 57 60 65 68 68 67 67 66 66 67 67 67 66 66 65 65 65 65 64 64 64 64
46 46 46 47 48 49 50 50 51 52 53 53 58 63 66 67 67 66 66 66 66 66 66 65 64 64 65 64 64 63 64 64
45 45 45 46 46 47 47 49 49 51 51 51 52 53 56 64 65 65 66 65 65 65 65 65 64 64 64 63 63 63 63 63
43 43 44 43 44 44 44 45 45 47 48 49 51 53 54 54 61 66 65 65 64 64 64 63 63 64 62 61 61 63 63 63
41 41 41 41 42 43 44 43 45 45 47 47 48 49 50 51 53 58 64 65 64 63 63 61 63 63 61 60 58 59 61 62
40 40 40 41 41 41 40 41 42 42 42 43 45 46 47 48 50 53 54 62 64 64 63 61 58 62 60 58 55 54 57 58
39 39 39 39 39 39 39 38 38 39 40 42 42 44 45 47 50 51 53 56 60 63 63 62 59 56 55 55 56 56 53 52
37 36 36 37 38 38 38 37 38 38 39 40 41 43 45 46 48 49 51 52 55 62 62 59 57 54 52 54 54 57 56 53
35 34 34 35 36 36 36 36 36 37 38 39 41 43 44 46 47 49 51 53 56 60 62 60 56 55 54 54 55 56 54 54
34 34 33 33 34 35 35 35 36 37 37 39 39 41 43 45 46 48 50 51 54 58 60 58 58 57 55 55 55 53 54 56
32 33 33 33 33 33 34 35 36 36 36 37 38 40 42 44 45 48 49 51 52 56 60 60 58 58 58 57 55 56 57 57

GFSFLT2_sfc_30mbdewp_117.txt.gz
Dewpoint
68 69 70 70 70 70 70 70 70 70 70 71 71 70 70 70 70 70 70 71 71 71 70 70 70 69 69 68 67 67 67 66
68 68 69 69 69 69 70 70 70 70 70 70 70 70 69 69 69 69 70 70 70 70 70 70 70 69 68 68 67 67 66 65
68 68 68 68 68 69 69 70 70 70 70 70 70 70 70 69 69 69 69 69 70 70 70 69 69 68 67 67 67 67 66 65
67 68 68 68 68 68 69 70 70 70 70 70 70 69 70 70 69 69 69 69 69 70 70 69 69 67 67 67 67 66 66 66
68 68 68 68 68 68 68 68 69 69 69 69 69 68 68 69 69 69 69 69 68 69 69 69 68 68 66 66 66 66 66 66
68 69 69 68 69 68 67 68 68 68 68 68 68 68 68 68 68 68 68 68 68 68 68 68 68 67 67 66 66 65 65 65
66 63 64 67 67 67 68 67 67 67 67 68 68 67 67 67 67 67 68 68 68 67 68 68 67 67 67 66 65 65 65 65
53 53 53 54 55 56 58 61 64 67 67 67 68 68 68 68 67 67 67 68 68 67 67 67 67 67 66 66 66 65 65 65
50 50 50 50 50 52 53 55 57 58 59 62 65 67 67 67 67 68 68 68 67 67 67 67 66 66 66 66 66 65 65 65
47 48 48 48 48 49 50 51 52 52 55 56 59 61 62 66 66 66 67 68 67 67 66 66 66 65 65 65 65 65 65 65
45 46 46 46 46 47 48 48 48 51 51 52 53 55 56 57 60 66 67 66 66 66 66 66 65 65 64 64 65 64 64 64
44 43 43 44 45 45 46 44 45 47 47 49 50 52 53 53 55 60 65 65 64 64 64 65 64 64 64 64 64 64 64 64
41 41 41 42 42 42 43 41 44 43 46 45 46 48 49 49 51 52 55 62 64 63 63 62 62 64 62 61 61 62 63 63
40 40 40 40 41 41 41 40 43 42 42 42 44 44 45 47 48 49 52 52 55 64 63 62 62 63 59 59 57 58 60 62
38 38 38 38 39 39 39 39 39 40 39 40 42 43 44 45 46 49 50 51 51 54 62 63 61 61 62 58 54 55 56 59
35 35 36 37 37 37 38 38 37 38 38 40 41 42 44 45 46 47 48 50 52 53 57 62 62 59 57 58 55 55 52 52
34 33 34 35 35 36 36 36 37 38 38 38 40 42 43 44 46 46 47 48 50 52 53 56 62 61 57 55 55 54 54 50
34 33 33 34 34 35 35 35 36 36 37 37 38 39 41 43 45 46 47 48 50 51 52 56 59 60 58 56 54 53 54 52
33 33 33 33 33 33 34 34 35 35 36 36 37 38 40 41 42 43 45 47 49 50 51 53 57 59 57 56 56 54 54 54
32 32 32 33 33 33 33 34 34 35 35 35 36 37 38 39 40 41 43 45 47 49 51 52 54 59 57 56 55 55 56 55

GFSFLT2_sfc_30mbdewp_120.txt.gz
Dewpoint
68 69 70 70 70 70 69 70 70 70 70 70 70 70 70 69 70 71 71 71 71 71 70 70 70 69 68 67 67 67 67 65
67 68 69 69 70 70 70 69 70 70 70 70 70 70 70 69 69 69 70 71 71 71 70 70 70 69 69 68 67 67 66 65
67 67 68 68 68 69 69 70 70 70 70 70 70 70 69 69 69 69 69 70 70 70 70 69 69 69 68 68 67 67 66 65
67 67 67 68 68 68 68 69 70 70 70 70 70 69 69 69 69 69 69 69 69 69 70 69 69 68 68 67 67 66 66 65
67 67 67 67 68 67 67 68 69 68 69 69 69 69 68 68 69 69 68 68 68 69 69 69 68 68 66 66 66 66 66 66
67 67 67 67 68 67 67 67 68 68 68 69 68 68 68 68 68 67 67 68 68 68 68 69 68 68 67 66 66 66 65 65
66 68 68 68 68 68 67 67 67 67 67 68 68 68 67 67 67 67 67 67 67 67 67 67 67 67 67 66 65 65 65 65
58 62 62 59 59 60 60 61 63 66 66 66 67 67 67 67 67 67 67 67 67 67 66 66 66 66 66 66 66 65 65 65
51 51 52 52 53 53 55 56 56 57 58 60 61 61 61 64 66 66 66 67 66 67 67 67 66 65 65 66 66 65 65 65
46 48 48 49 49 51 51 52 52 52 54 55 55 57 57 58 58 61 66 68 67 66 66 65 66 65 65 65 65 65 65 65
43 43 44 46 47 48 46 47 48 48 50 49 50 53 53 53 56 58 61 63 66 66 66 65 65 65 65 65 65 64 65 65
41 41 41 43 44 45 44 44 45 46 46 45 48 47 48 48 50 52 53 58 63 64 64 65 64 64 64 63 64 64 64 64
39 39 39 40 41 41 42 41 42 43 42 43 44 44 45 46 48 49 51 52 52 56 63 61 60 62 61 61 62 63 63 63
35 36 37 38 39 39 40 40 42 42 40 42 42 43 44 45 46 47 49 50 50 50 55 62 62 61 59 57 52 52 58 62
34 34 35 36 37 38 38 39 39 39 39 39 40 42 44 45 46 47 47 48 49 51 53 54 60 62 62 58 55 54 57 58
36 35 34 34 35 36 37 37 37 38 38 39 39 41 41 43 46 47 47 48 48 49 51 52 56 58 60 62 58 56 54 53
35 35 35 34 34 35 35 35 36 37 37 37 38 39 40 42 44 45 45 47 48 49 49 50 53 54 58 57 57 55 54 52
34 33 33 34 33 34 34 34 35 35 36 36 36 37 39 40 41 42 43 44 46 48 50 51 51 52 55 58 56 55 53 52
33 33 32 33 33 33 33 33 34 34 34 35 35 36 36 37 38 40 40 42 43 45 47 48 50 51 52 56 57 56 55 53
30 31 32 33 32 32 33 33 33 33 33 33 33 34 34 36 36 38 39 40 42 44 46 48 50 52 52 52 57 57 57 55

GFSFLT2_sfc_30mbdewp_123.txt.gz
Dewpoint
69 70 70 70 70 70 70 70 70 70 70 70 70 71 71 71 71 71 72 72 71 71 71 70 69 68 67 67 67 67 65 66
68 69 70 70 70 69 69 69 69 69 70 70 70 70 70 70 70 71 71 71 70 70 70 69 69 69 68 67 67 67 65 65
69 68 69 70 70 70 70 69 69 69 69 69 70 69 69 69 69 69 70 70 70 70 70 70 69 69 68 68 67 65 66 64
67 68 69 69 68 69 69 70 70 70 69 70 70 70 69 68 69 69 69 69 70 70 70 70 69 68 67 68 66 65 66 65
52 68 68 69 68 69 68 68 69 70 70 69 69 69 69 69 68 68 68 68 68 69 69 69 69 68 67 66 66 66 65 65
42 65 68 68 68 69 69 68 68 68 68 69 69 69 69 68 67 67 67 68 67 68 67 69 69 69 68 67 66 65 64 64
49 62 68 68 69 69 69 68 67 67 68 68 69 68 68 68 68 68 67 66 67 67 67 67 68 68 69 68 67 66 65 66
55 56 57 67 68 68 67 66 66 66 66 66 68 67 67 67 67 67 68 68 68 67 66 66 66 67 67 68 67 66 66 66
49 50 51 53 57 58 60 60 60 60 60 60 60 61 61 64 66 66 67 68 67 67 67 67 66 66 66 66 67 67 66 66
43 44 45 48 51 53 54 55 55 56 55 55 55 56 57 59 59 61 61 63 67 66 66 65 65 65 65 65 66 66 66 66
40 41 41 44 47 47 49 49 49 51 49 50 52 50 51 52 53 56 56 59 61 65 66 65 64 64 65 65 66 66 66 66
37 38 39 40 42 44 45 45 45 45 45 46 47 48 48 49 51 51 52 53 56 62 63 65 65 65 65 64 65 65 66 65
35 36 37 38 39 39 41 42 43 42 42 44 44 46 47 48 47 49 50 51 52 53 55 60 63 64 63 62 60 62 63 63
35 35 35 36 37 39 39 40 42 42 41 42 42 44 46 46 47 48 49 49 50 51 52 54 62 62 60 59 56 58 59 61
35 35 35 35 36 37 37 38 38 39 39 40 41 42 43 45 46 46 47 48 48 48 51 52 54 61 61 58 54 53 54 56
34 34 35 36 36 35 36 35 35 37 38 38 39 41 42 42 44 45 46 47 48 48 49 50 52 53 58 61 60 58 55 55
34 34 34 35 35 36 35 34 35 35 36 37 37 39 39 40 41 42 43 44 46 47 49 50 50 50 52 57 60 60 59 56
33 33 33 34 34 35 35 34 34 34 34 34 35 36 37 37 38 39 40 41 42 44 45 47 49 51 51 51 54 56 56 56
33 33 33 33 33 33 33 33 33 33 32 33 33 33 34 35 35 37 38 39 40 42 43 45 47 48 50 51 51 53 56 54
31 31 31 32 33 33 33 33 33 32 32 32 32 32 33 33 34 35 36 37 38 39 41 43 45 47 49 51 52 52 54 56

GFSFLT2_sfc_30mbdewp_129.txt.gz
Dewpoint
68 69 70 70 71 70 70 70 69 69 70 71 72 72 72 72 71 71 71 72 72 72 72 71 71 70 68 67 66 66 64 59
60 65 69 69 70 70 70 70 69 69 69 69 70 71 71 71 71 71 71 72 71 71 71 71 70 70 68 67 66 66 64 62
43 50 59 65 68 69 69 69 70 69 69 69 69 66 65 67 69 69 70 71 70 71 71 71 70 69 68 67 66 64 62 60
37 47 51 60 62 63 69 69 68 68 67 67 69 67 65 64 64 67 69 70 70 70 69 70 70 65 64 67 66 63 60 58
50 54 60 55 59 60 62 63 64 66 68 69 69 69 68 67 66 66 67 69 68 68 67 67 65 64 61 65 64 63 60 57
51 53 57 63 66 61 59 59 60 61 63 68 69 68 68 68 67 67 66 65 66 66 67 66 66 65 64 63 62 60 58 56
49 50 53 57 61 62 68 68 65 65 66 67 68 67 68 68 68 68 67 67 66 65 66 66 66 66 66 65 65 63 61 59
47 48 51 54 55 57 59 61 63 66 65 63 64 65 67 68 68 67 67 68 67 67 66 66 67 67 66 66 66 65 65 62
44 45 47 50 53 52 54 56 59 59 60 59 58 59 59 61 64 66 66 67 66 67 66 66 66 66 66 66 67 66 65 65
42 43 45 47 47 50 50 52 53 52 53 53 54 54 55 56 58 61 63 63 64 65 66 65 65 66 66 67 66 67 66 66
41 41 42 44 45 47 48 49 48 49 49 50 51 52 52 53 54 57 58 58 61 62 63 64 64 64 64 65 66 66 66 67
39 40 41 41 42 44 45 46 48 46 46 48 48 49 50 51 50 52 52 52 53 55 59 60 62 62 63 64 64 65 66 66
38 39 40 39 38 39 41 42 44 45 45 46 46 47 48 48 48 49 49 49 51 52 53 53 54 58 61 62 63 64 63 65
38 38 38 39 39 40 39 41 42 42 42 43 44 44 45 44 45 46 47 47 48 50 50 50 50 51 55 57 56 58 63 63
38 38 38 39 40 39 40 39 38 38 39 40 41 43 43 43 43 43 44 45 45 47 48 49 49 50 51 53 53 51 53 61
37 38 37 38 39 38 39 38 38 39 38 39 39 41 41 41 41 41 41 42 43 44 45 46 47 47 49 49 51 54 52 53
37 37 37 37 37 37 37 37 36 37 38 38 38 38 39 39 39 39 40 40 41 42 43 44 45 46 47 48 50 49 51 53
36 36 35 36 36 36 36 36 35 35 35 35 36 36 37 37 37 38 38 39 39 40 41 42 43 45 46 47 48 48 49 49
33 34 34 34 35 35 34 34 34 34 33 33 33 35 34 35 36 36 36 37 38 38 39 40 42 43 45 45 46 47 49 49
33 32 32 33 33 33 33 33 33 32 32 32 32 33 33 34 35 35 35 35 36 36 37 39 40 41 42 43 44 44 46 47

GFSFLT2_sfc_30mbdewp_132.txt.gz
Dewpoint
68 71 70 70 70 70 70 69 69 69 70 71 72 72 72 71 71 71 71 72 72 72 72 71 71 70 68 67 66 65 65 63
49 57 65 72 71 69 70 70 69 69 69 69 70 71 71 71 71 71 71 71 71 71 72 71 71 70 69 68 67 66 65 64
59 61 63 61 64 70 70 70 69 69 69 69 69 69 68 70 71 70 70 70 70 71 71 71 70 70 70 68 67 66 64 63
54 58 59 64 64 68 71 71 70 70 69 68 69 69 68 66 67 68 69 69 70 70 70 70 70 70 69 69 67 66 64 63
51 52 56 59 62 66 66 67 70 70 69 69 70 70 69 68 68 67 69 69 69 69 69 69 69 68 66 66 66 65 64 63
49 51 54 56 59 59 62 64 67 69 68 67 67 68 68 68 68 68 67 67 68 67 67 67 67 65 65 64 66 66 64 63
47 48 51 54 56 57 57 60 61 63 63 63 64 67 68 68 68 68 67 66 66 66 66 67 67 66 66 66 65 66 64 61
46 47 49 51 53 54 55 56 56 58 58 57 58 59 60 61 64 67 67 67 67 67 65 64 65 66 66 66 66 66 66 65
44 45 47 49 49 53 51 52 54 54 54 54 56 56 56 58 60 61 63 64 63 63 65 65 64 64 64 64 66 66 66 66
43 43 44 47 49 50 51 50 50 52 51 52 53 53 54 54 56 59 62 60 62 61 62 62 63 64 64 65 64 65 66 65
41 43 43 43 45 48 48 49 49 49 49 50 50 51 51 52 53 55 55 56 57 60 60 61 62 62 63 63 63 64 59 61
40 41 43 42 42 43 45 46 47 47 47 48 48 49 49 48 48 49 50 50 51 52 53 54 55 57 58 62 63 63 62 63
40 40 41 42 41 41 41 42 44 43 43 44 46 46 46 46 46 46 47 47 48 49 49 49 50 52 53 55 59 61 63 64
39 39 40 41 40 41 42 41 43 42 43 43 44 44 45 43 43 44 43 45 45 45 47 46 48 49 50 51 52 54 61 63
38 38 39 40 40 40 40 41 41 41 41 42 42 43 43 42 42 42 42 43 43 44 44 44 44 45 48 49 49 49 50 53
38 38 38 38 39 38 38 38 37 38 39 39 40 41 41 40 40 41 40 40 41 41 42 42 44 43 45 47 47 49 49 48
38 37 37 37 37 37 37 37 37 36 36 37 37 38 39 38 38 38 38 38 39 40 40 41 42 43 44 45 46 47 47 48
35 35 35 36 36 36 35 35 35 35 34 34 34 35 36 36 36 37 37 37 37 37 39 39 41 42 43 44 44 45 46 47
33 33 33 34 34 34 33 33 33 33 33 33 32 33 32 34 35 36 35 36 36 36 37 38 39 39 40 41 42 43 45 45
33 32 33 33 33 33 33 32 32 33 32 32 32 32 32 33 34 34 34 35 35 36 37 37 36 37 37 36 38 40 40 43

GFSFLT2_sfc_30mbdewp_135.txt.gz
Dewpoint
65 68 70 70 69 68 68 68 69 69 71 71 71 71 71 71 70 70 71 71 72 72 72 71 72 71 69 67 66 65 65 64
56 57 61 63 68 69 68 68 68 68 69 69 71 71 71 71 71 71 70 70 71 71 72 71 71 71 70 69 67 66 65 64
52 54 55 59 63 68 70 69 69 69 68 68 68 69 70 71 71 71 70 70 70 70 71 71 71 71 70 69 68 67 65 64
50 52 54 56 59 61 64 66 70 69 69 68 68 68 67 68 69 70 70 70 69 69 70 70 70 70 70 69 69 67 66 64
48 49 52 54 56 59 60 62 64 66 67 69 69 69 68 69 69 68 68 69 69 69 69 69 69 69 70 69 69 68 66 64
47 48 49 51 55 56 57 59 61 61 61 62 66 67 67 68 68 68 68 68 68 68 68 68 68 68 68 67 66 67 65 64
46 47 47 50 51 53 55 55 58 58 57 58 59 60 60 61 64 66 66 66 66 66 66 67 67 67 66 66 65 66 66 66
44 44 45 48 49 52 51 53 55 55 54 55 56 57 57 58 60 61 63 63 62 62 63 64 64 65 65 65 65 66 66 67
43 43 44 44 49 50 50 50 52 51 51 53 53 54 54 55 57 58 61 61 60 61 62 63 63 64 64 65 64 64 65 64
43 42 42 42 42 49 48 49 49 49 49 50 51 51 50 52 51 51 52 53 55 55 56 57 59 61 62 63 64 64 64 64
42 43 43 42 42 43 47 47 45 45 48 47 48 47 48 48 48 48 49 50 50 51 51 51 52 54 55 57 61 62 63 63
41 41 42 42 42 42 42 45 44 44 44 45 46 46 45 45 46 46 46 46 47 47 48 48 49 51 51 53 55 61 62 62
39 40 40 40 40 41 41 41 43 43 43 43 44 45 43 43 43 43 43 44 44 45 45 45 47 47 50 49 50 52 57 62
39 39 39 39 39 40 40 42 42 43 43 43 43 43 42 40 41 41 41 42 43 43 42 42 43 45 46 48 49 49 50 52
38 38 38 39 38 38 38 39 38 38 38 39 40 41 40 39 39 39 40 40 40 40 41 41 41 42 43 45 46 46 46 48
38 37 37 37 38 37 36 36 35 37 36 37 37 38 37 37 37 38 38 39 38 39 39 40 41 40 42 44 44 45 45 44
36 36 36 36 36 35 35 35 34 35 35 34 34 35 35 35 35 37 36 37 37 37 37 38 39 41 42 43 44 44 45 45
35 35 35 35 34 34 33 33 33 33 33 32 33 33 34 34 34 35 36 36 36 37 37 38 39 40 40 41 42 42 42 43
34 34 33 34 33 33 33 32 33 32 32 33 32 32 33 33 34 34 35 35 35 36 37 36 36 37 37 37 38 40 40 42
33 33 33 33 33 33 33 32 32 33 32 33 33 32 32 32 33 34 33 35 34 35 34 34 34 35 34 34 34 34 35 37

GFSFLT2_sfc_30mbdewp_138.txt.gz
Dewpoint
54 56 58 62 66 68 69 68 68 69 70 70 71 71 71 71 70 70 70 70 71 71 71 71 71 70 69 67 67 66 66 65
52 53 56 60 61 64 68 69 69 68 69 70 70 71 71 71 70 70 70 70 70 71 71 71 71 71 71 70 68 67 66 65
49 51 54 57 57 61 63 65 67 69 69 69 69 70 71 71 71 70 70 70 69 69 70 70 69 70 70 70 70 68 67 66
48 49 51 55 56 58 61 63 64 64 64 68 68 68 68 69 70 70 70 70 69 69 69 69 69 69 70 70 69 69 68 67
47 47 49 52 54 56 58 60 61 60 60 62 65 68 68 69 69 69 68 69 69 69 69 69 69 69 68 69 69 69 68 67
45 45 47 50 53 54 55 57 57 57 58 58 59 60 61 62 65 66 65 66 66 67 67 68 68 68 67 66 68 69 68 67
43 44 44 48 51 50 52 54 55 55 56 56 57 56 57 59 61 62 63 62 62 62 63 64 64 65 66 67 66 66 67 66
43 43 43 44 49 50 49 51 51 52 52 54 54 54 54 55 58 59 57 59 60 61 61 62 63 64 64 64 65 66 66 67
42 43 43 43 46 48 49 50 49 49 50 50 50 50 50 51 51 51 52 54 53 54 54 55 56 58 60 63 64 64 65 65
42 42 43 43 42 47 47 45 46 48 48 48 47 47 47 48 48 47 49 50 50 50 50 50 51 53 53 55 58 62 63 64
41 41 41 41 42 43 46 44 44 44 45 46 45 45 44 45 45 45 46 47 47 47 48 48 48 50 48 50 53 55 60 63
40 40 40 40 41 42 42 44 43 44 43 44 44 43 42 43 43 43 44 44 44 44 44 45 46 46 46 49 52 51 55 60
39 38 39 39 39 40 41 41 43 41 42 42 43 40 40 40 41 41 41 42 42 42 43 42 44 44 47 44 48 52 54 58
38 38 38 38 38 39 39 41 39 38 39 39 39 38 38 37 39 39 39 40 40 40 41 41 42 42 42 44 46 46 48 48
37 37 37 37 37 37 37 37 37 35 36 36 38 37 36 36 36 38 38 39 38 38 39 39 39 41 41 43 42 41 42 46
37 36 36 36 36 35 35 35 35 35 35 34 35 35 35 35 36 37 36 37 37 37 37 38 39 39 40 42 43 44 41 41
36 35 35 34 34 34 34 33 33 34 33 33 33 34 34 34 35 35 36 36 36 37 37 38 40 40 40 41 42 43 42 43
35 34 34 34 33 33 33 33 32 32 33 32 33 33 33 34 34 35 35 35 36 37 37 36 37 38 38 39 39 40 41 41
34 33 33 33 33 32 33 33 32 31 32 33 32 32 32 33 34 33 34 35 35 35 34 34 34 35 34 35 37 37 37 38
33 33 33 33 33 32 32 33 33 32 32 32 32 32 32 33 32 32 32 33 35 34 34 33 33 33 32 31 33 33 34 35

GFSFLT2_sfc_30mbdewp_141.txt.gz
Dewpoint
53 55 58 60 63 65 67 68 69 68 70 70 70 71 71 70 70 70 70 70 70 70 71 71 71 70 68 67 66 66 66 65
50 53 55 56 59 63 65 66 66 68 69 68 69 70 71 70 70 70 70 69 70 70 70 70 70 70 70 69 68 68 67 66
49 51 53 55 57 59 62 64 64 63 64 68 69 68 69 70 70 70 70 70 69 69 69 69 69 69 70 70 70 69 68 67
46 49 51 53 55 57 58 61 61 60 60 63 67 68 68 68 68 68 68 69 69 69 69 69 69 69 69 69 69 69 68 68
45 47 49 51 53 54 56 57 58 59 59 59 61 62 63 65 67 67 66 66 67 68 68 68 68 69 68 68 68 68 68 68
43 45 48 50 50 52 53 54 54 55 56 56 57 58 58 60 62 63 62 62 61 62 63 64 65 66 67 67 66 68 68 68
42 43 46 49 49 49 50 51 51 52 53 53 53 54 55 57 57 56 56 58 60 60 60 61 62 63 64 64 66 67 68 68
42 42 43 47 49 49 49 49 49 50 48 48 49 50 51 52 52 51 51 53 53 54 54 55 56 57 58 60 63 64 65 67
42 43 43 44 47 46 47 48 48 47 47 46 46 46 48 48 47 46 48 50 50 50 50 51 51 52 52 53 56 59 63 64
41 41 41 42 45 46 44 44 45 45 46 45 44 44 45 45 44 44 46 47 46 46 47 47 48 50 48 49 50 52 55 60
39 40 40 41 42 44 44 44 44 44 44 43 42 41 42 43 42 42 44 44 44 44 44 44 45 46 45 46 48 50 52 58
39 39 39 40 41 43 43 43 42 42 42 41 39 39 40 40 40 41 42 42 41 42 42 42 43 43 43 46 48 48 49 50
38 37 38 38 39 40 40 39 39 39 39 38 38 37 37 37 39 39 40 40 39 40 40 40 42 42 43 42 45 51 51 55
37 37 37 37 38 38 40 39 37 37 37 38 37 36 36 36 37 38 38 38 38 38 38 38 39 40 41 42 43 43 46 45
37 36 36 36 36 37 37 37 36 35 34 35 36 36 35 36 36 36 36 37 37 37 37 37 38 39 40 42 40 39 41 44
36 35 35 35 35 34 34 34 32 33 34 34 34 35 34 35 36 36 36 37 36 37 37 38 39 38 40 41 42 42 41 39
35 34 34 34 34 34 33 33 33 33 33 33 33 34 34 35 35 35 36 36 36 37 36 36 37 38 38 39 39 40 40 42
34 33 33 33 33 33 32 32 32 32 32 32 33 32 33 34 34 34 35 35 35 35 35 34 35 35 35 36 36 37 38 39
33 33 32 32 32 32 32 32 31 32 32 31 31 31 32 31 32 32 33 35 35 34 34 34 33 32 32 32 33 34 34 35
33 33 32 32 32 32 33 32 32 32 32 31 31 31 31 30 29 31 32 34 35 35 34 34 31 31 30 31 32 33 34 34